Time,TemperatureF,DewpointF,PressureIn,WindDirection,WindDirectionDegrees,WindSpeedMPH,WindSpeedGustMPH,Humidity,HourlyPrecipIn,Conditions,Clouds,dailyrainin,SoftwareType,DateUTC
2013-05-12 00:01:00,69.8,51.4,30.04,North,4,2.0,5.0,52,0.00,,,0.00,Wunderground v.1.15,2013-05-12 05:01:00,
2013-05-12 00:02:00,69.8,51.4,30.04,North,4,2.0,5.0,52,0.00,,,0.00,Wunderground v.1.15,2013-05-12 05:02:00,
2013-05-12 00:04:00,69.6,51.2,30.04,NNE,14,2.0,5.0,52,0.00,,,0.00,Wunderground v.1.15,2013-05-12 05:04:00,
2013-05-12 00:06:00,69.6,51.2,30.04,North,11,2.0,5.0,52,0.00,,,0.00,Wunderground v.1.15,2013-05-12 05:06:00,
2013-05-12 00:10:00,69.6,50.7,30.04,NE,35,2.0,5.0,51,0.00,,,0.00,Wunderground v.1.15,2013-05-12 05:10:00,
2013-05-12 00:11:00,69.6,50.7,30.04,NE,34,3.0,3.0,51,0.00,,,0.00,Wunderground v.1.15,2013-05-12 05:11:00,
2013-05-12 00:12:00,69.6,50.7,30.04,NE,35,3.0,3.0,51,0.00,,,0.00,Wunderground v.1.15,2013-05-12 05:12:00,
2013-05-12 00:13:00,69.4,50.5,30.04,North,357,2.0,3.0,51,0.00,,,0.00,Wunderground v.1.15,2013-05-12 05:13:00,
2013-05-12 00:15:00,69.4,50.5,30.04,NNE,30,3.0,5.0,51,0.00,,,0.00,Wunderground v.1.15,2013-05-12 05:15:00,
2013-05-12 00:17:00,69.4,50.5,30.04,NNE,24,3.0,5.0,51,0.00,,,0.00,Wunderground v.1.15,2013-05-12 05:17:00,
2013-05-12 00:18:00,69.4,50.5,30.04,NNE,25,3.0,5.0,51,0.00,,,0.00,Wunderground v.1.15,2013-05-12 05:18:00,
2013-05-12 00:19:00,69.4,50.5,30.04,NNE,25,3.0,5.0,51,0.00,,,0.00,Wunderground v.1.15,2013-05-12 05:19:00,
2013-05-12 00:21:00,69.4,50.5,30.04,NNE,24,3.0,3.0,51,0.00,,,0.00,Wunderground v.1.15,2013-05-12 05:21:00,
2013-05-12 00:22:00,69.4,50.5,30.04,NNE,24,3.0,3.0,51,0.00,,,0.00,Wunderground v.1.15,2013-05-12 05:22:00,
2013-05-12 00:24:00,69.4,51.0,30.04,NNE,25,2.0,3.0,52,0.00,,,0.00,Wunderground v.1.15,2013-05-12 05:24:00,
2013-05-12 00:26:00,69.4,51.0,30.04,NNE,25,2.0,3.0,52,0.00,,,0.00,Wunderground v.1.15,2013-05-12 05:26:00,
2013-05-12 00:27:00,69.4,51.0,30.04,NNE,25,1.0,3.0,52,0.00,,,0.00,Wunderground v.1.15,2013-05-12 05:27:00,
2013-05-12 00:31:00,69.3,50.9,30.04,NNE,23,1.0,2.0,52,0.00,,,0.00,Wunderground v.1.15,2013-05-12 05:31:00,
2013-05-12 00:34:00,69.3,50.9,30.04,NNE,28,2.0,4.0,52,0.00,,,0.00,Wunderground v.1.15,2013-05-12 05:34:00,
2013-05-12 00:35:00,69.3,50.9,30.04,NNE,28,2.0,4.0,52,0.00,,,0.00,Wunderground v.1.15,2013-05-12 05:35:00,
2013-05-12 00:37:00,69.3,50.9,30.04,NNE,28,2.0,4.0,52,0.00,,,0.00,Wunderground v.1.15,2013-05-12 05:37:00,
2013-05-12 00:39:00,69.1,50.7,30.04,NNE,28,3.0,4.0,52,0.00,,,0.00,Wunderground v.1.15,2013-05-12 05:39:00,
2013-05-12 00:41:00,69.1,50.7,30.04,NNE,27,3.0,3.0,52,0.00,,,0.00,Wunderground v.1.15,2013-05-12 05:41:00,
2013-05-12 00:43:00,69.1,51.2,30.04,NNE,28,2.0,3.0,53,0.00,,,0.00,Wunderground v.1.15,2013-05-12 05:43:00,
2013-05-12 00:44:00,69.1,51.2,30.04,NNE,28,2.0,3.0,53,0.00,,,0.00,Wunderground v.1.15,2013-05-12 05:44:00,
2013-05-12 00:46:00,68.9,51.1,30.04,NE,41,2.0,5.0,53,0.00,,,0.00,Wunderground v.1.15,2013-05-12 05:46:00,
2013-05-12 00:48:00,68.9,51.1,30.04,NE,40,2.0,5.0,53,0.00,,,0.00,Wunderground v.1.15,2013-05-12 05:48:00,
2013-05-12 00:52:00,68.8,51.5,30.04,NE,40,2.0,2.0,54,0.00,,,0.00,Wunderground v.1.15,2013-05-12 05:52:00,
2013-05-12 00:53:00,68.8,51.5,30.04,NE,40,2.0,2.0,54,0.00,,,0.00,Wunderground v.1.15,2013-05-12 05:53:00,
2013-05-12 00:54:00,68.8,51.5,30.04,NE,40,2.0,2.0,54,0.00,,,0.00,Wunderground v.1.15,2013-05-12 05:54:00,
2013-05-12 00:55:00,68.6,50.8,30.04,NE,40,2.0,2.0,53,0.00,,,0.00,Wunderground v.1.15,2013-05-12 05:55:00,
2013-05-12 00:57:00,68.6,50.8,30.04,NE,40,1.0,3.0,53,0.00,,,0.00,Wunderground v.1.15,2013-05-12 05:57:00,
2013-05-12 01:01:00,68.4,50.6,30.04,NE,40,1.0,2.0,53,0.00,,,0.00,Wunderground v.1.15,2013-05-12 06:01:00,
2013-05-12 01:02:00,68.4,50.6,30.04,NE,40,1.0,2.0,53,0.00,,,0.00,Wunderground v.1.15,2013-05-12 06:02:00,
2013-05-12 01:03:00,68.4,50.6,30.04,NE,38,1.0,2.0,53,0.00,,,0.00,Wunderground v.1.15,2013-05-12 06:03:00,
2013-05-12 01:07:00,68.4,50.6,30.04,NE,38,2.0,5.0,53,0.00,,,0.00,Wunderground v.1.15,2013-05-12 06:07:00,
2013-05-12 01:08:00,68.4,50.6,30.04,NE,42,3.0,5.0,53,0.00,,,0.00,Wunderground v.1.15,2013-05-12 06:08:00,
2013-05-12 01:09:00,68.4,50.6,30.04,NE,41,3.0,5.0,53,0.00,,,0.00,Wunderground v.1.15,2013-05-12 06:09:00,
2013-05-12 01:11:00,68.3,50.5,30.04,NNE,17,3.0,3.0,53,0.00,,,0.00,Wunderground v.1.15,2013-05-12 06:11:00,
2013-05-12 01:14:00,68.3,51.0,30.04,North,8,3.0,3.0,54,0.00,,,0.00,Wunderground v.1.15,2013-05-12 06:14:00,
2013-05-12 01:16:00,68.3,51.0,30.03,North,8,2.0,3.0,54,0.00,,,0.00,Wunderground v.1.15,2013-05-12 06:16:00,
2013-05-12 01:18:00,68.3,50.5,30.03,North,0,2.0,4.0,53,0.00,,,0.00,Wunderground v.1.15,2013-05-12 06:18:00,
2013-05-12 01:21:00,68.1,50.3,30.03,North,1,2.0,2.0,53,0.00,,,0.00,Wunderground v.1.15,2013-05-12 06:21:00,
2013-05-12 01:22:00,68.1,50.3,30.03,North,10,2.0,3.0,53,0.00,,,0.00,Wunderground v.1.15,2013-05-12 06:22:00,
2013-05-12 01:26:00,68.1,50.3,30.03,North,8,2.0,5.0,53,0.00,,,0.00,Wunderground v.1.15,2013-05-12 06:26:00,
2013-05-12 01:27:00,68.1,50.3,30.03,NNE,23,3.0,5.0,53,0.00,,,0.00,Wunderground v.1.15,2013-05-12 06:27:00,
2013-05-12 01:28:00,68.1,50.3,30.03,NNE,14,3.0,5.0,53,0.00,,,0.00,Wunderground v.1.15,2013-05-12 06:28:00,
2013-05-12 01:29:00,68.1,50.3,30.03,North,1,2.0,6.0,53,0.00,,,0.00,Wunderground v.1.15,2013-05-12 06:29:00,
2013-05-12 01:31:00,67.9,50.1,30.02,NNE,25,3.0,6.0,53,0.00,,,0.00,Wunderground v.1.15,2013-05-12 06:31:00,
2013-05-12 01:33:00,67.9,50.1,30.02,NNE,20,3.0,5.0,53,0.00,,,0.00,Wunderground v.1.15,2013-05-12 06:33:00,
2013-05-12 01:34:00,67.9,49.6,30.02,NE,49,3.0,5.0,52,0.00,,,0.00,Wunderground v.1.15,2013-05-12 06:34:00,
2013-05-12 01:35:00,67.9,49.6,30.02,NE,38,3.0,5.0,52,0.00,,,0.00,Wunderground v.1.15,2013-05-12 06:35:00,
2013-05-12 01:36:00,67.9,49.6,30.02,NE,55,3.0,5.0,52,0.00,,,0.00,Wunderground v.1.15,2013-05-12 06:36:00,
2013-05-12 01:41:00,67.9,49.6,30.02,NNE,27,3.0,3.0,52,0.00,,,0.00,Wunderground v.1.15,2013-05-12 06:41:00,
2013-05-12 01:42:00,67.9,49.6,30.02,NNE,27,3.0,3.0,52,0.00,,,0.00,Wunderground v.1.15,2013-05-12 06:42:00,
2013-05-12 01:43:00,67.9,50.1,30.02,NNE,27,3.0,3.0,53,0.00,,,0.00,Wunderground v.1.15,2013-05-12 06:43:00,
2013-05-12 01:46:00,67.8,49.5,30.01,NE,34,3.0,3.0,52,0.00,,,0.00,Wunderground v.1.15,2013-05-12 06:46:00,
2013-05-12 01:48:00,67.8,49.5,30.01,NNE,32,3.0,6.0,52,0.00,,,0.00,Wunderground v.1.15,2013-05-12 06:48:00,
2013-05-12 01:51:00,67.8,49.5,30.01,North,359,3.0,3.0,52,0.00,,,0.00,Wunderground v.1.15,2013-05-12 06:51:00,
2013-05-12 01:52:00,67.8,49.5,30.01,North,0,3.0,3.0,52,0.00,,,0.00,Wunderground v.1.15,2013-05-12 06:52:00,
2013-05-12 01:53:00,67.8,49.5,30.01,NNE,25,3.0,3.0,52,0.00,,,0.00,Wunderground v.1.15,2013-05-12 06:53:00,
2013-05-12 01:57:00,67.6,49.3,30.01,NE,37,4.0,7.0,52,0.00,,,0.00,Wunderground v.1.15,2013-05-12 06:57:00,
2013-05-12 01:58:00,67.6,49.3,30.01,NE,35,4.0,7.0,52,0.00,,,0.00,Wunderground v.1.15,2013-05-12 06:58:00,
2013-05-12 02:01:00,67.6,49.3,30.01,NE,44,4.0,4.0,52,0.00,,,0.00,Wunderground v.1.15,2013-05-12 07:01:00,
2013-05-12 02:06:00,67.6,48.8,30.01,NNE,30,4.0,6.0,51,0.00,,,0.00,Wunderground v.1.15,2013-05-12 07:06:00,
2013-05-12 02:07:00,67.6,48.8,30.01,NE,48,4.0,6.0,51,0.00,,,0.00,Wunderground v.1.15,2013-05-12 07:07:00,
2013-05-12 02:08:00,67.6,48.8,30.01,NE,40,4.0,6.0,51,0.00,,,0.00,Wunderground v.1.15,2013-05-12 07:08:00,
2013-05-12 02:09:00,67.6,48.8,30.01,NNE,31,4.0,6.0,51,0.00,,,0.00,Wunderground v.1.15,2013-05-12 07:09:00,
2013-05-12 02:11:00,67.4,48.6,30.01,NNE,20,4.0,4.0,51,0.00,,,0.00,Wunderground v.1.15,2013-05-12 07:11:00,
2013-05-12 02:14:00,67.4,48.6,30.01,NNE,31,4.0,4.0,51,0.00,,,0.00,Wunderground v.1.15,2013-05-12 07:14:00,
2013-05-12 02:16:00,67.3,48.5,30.01,NE,38,3.0,5.0,51,0.00,,,0.00,Wunderground v.1.15,2013-05-12 07:16:00,
2013-05-12 02:19:00,67.3,48.5,30.01,NNE,32,3.0,5.0,51,0.00,,,0.00,Wunderground v.1.15,2013-05-12 07:19:00,
2013-05-12 02:21:00,67.1,48.9,30.01,NE,35,3.0,4.0,52,0.00,,,0.00,Wunderground v.1.15,2013-05-12 07:21:00,
2013-05-12 02:22:00,67.1,48.9,30.01,ENE,66,3.0,4.0,52,0.00,,,0.00,Wunderground v.1.15,2013-05-12 07:22:00,
2013-05-12 02:23:00,67.1,48.9,30.01,ENE,66,3.0,4.0,52,0.00,,,0.00,Wunderground v.1.15,2013-05-12 07:23:00,
2013-05-12 02:24:00,67.1,48.9,30.01,ENE,66,2.0,4.0,52,0.00,,,0.00,Wunderground v.1.15,2013-05-12 07:24:00,
2013-05-12 02:27:00,66.9,48.7,30.01,NE,49,2.0,5.0,52,0.00,,,0.00,Wunderground v.1.15,2013-05-12 07:27:00,
2013-05-12 02:28:00,66.9,48.7,30.01,NE,49,2.0,5.0,52,0.00,,,0.00,Wunderground v.1.15,2013-05-12 07:28:00,
2013-05-12 02:29:00,66.8,48.6,30.01,NE,49,2.0,5.0,52,0.00,,,0.00,Wunderground v.1.15,2013-05-12 07:29:00,
2013-05-12 02:31:00,66.8,48.6,30.01,NE,49,1.0,1.0,52,0.00,,,0.00,Wunderground v.1.15,2013-05-12 07:31:00,
2013-05-12 02:34:00,66.6,48.4,30.01,NE,49,1.0,2.0,52,0.00,,,0.00,Wunderground v.1.15,2013-05-12 07:34:00,
2013-05-12 02:35:00,66.6,48.4,30.01,NE,49,1.0,2.0,52,0.00,,,0.00,Wunderground v.1.15,2013-05-12 07:35:00,
2013-05-12 02:36:00,66.4,48.7,30.01,NE,40,1.0,5.0,53,0.00,,,0.00,Wunderground v.1.15,2013-05-12 07:36:00,
2013-05-12 02:39:00,66.3,48.7,30.01,NE,42,2.0,5.0,53,0.00,,,0.00,Wunderground v.1.15,2013-05-12 07:39:00,
2013-05-12 02:41:00,66.3,48.7,30.01,NE,41,2.0,2.0,53,0.00,,,0.00,Wunderground v.1.15,2013-05-12 07:41:00,
2013-05-12 02:42:00,66.1,48.5,30.01,NE,41,2.0,2.0,53,0.00,,,0.00,Wunderground v.1.15,2013-05-12 07:42:00,
2013-05-12 02:45:00,66.0,48.4,30.01,NE,41,2.0,2.0,53,0.00,,,0.00,Wunderground v.1.15,2013-05-12 07:45:00,
2013-05-12 02:47:00,66.0,48.4,30.01,NE,41,1.0,2.0,53,0.00,,,0.00,Wunderground v.1.15,2013-05-12 07:47:00,
2013-05-12 02:48:00,65.8,48.7,30.01,NE,41,1.0,2.0,54,0.00,,,0.00,Wunderground v.1.15,2013-05-12 07:48:00,
2013-05-12 02:49:00,65.8,48.7,30.01,NE,41,1.0,2.0,54,0.00,,,0.00,Wunderground v.1.15,2013-05-12 07:49:00,
2013-05-12 02:51:00,65.8,48.2,30.01,NE,52,1.0,2.0,53,0.00,,,0.00,Wunderground v.1.15,2013-05-12 07:51:00,
2013-05-12 02:53:00,65.6,48.0,30.01,NE,52,1.0,2.0,53,0.00,,,0.00,Wunderground v.1.15,2013-05-12 07:53:00,
2013-05-12 02:55:00,65.6,48.5,30.01,NE,51,1.0,2.0,54,0.00,,,0.00,Wunderground v.1.15,2013-05-12 07:55:00,
2013-05-12 02:56:00,65.5,48.4,30.01,NE,51,1.0,3.0,54,0.00,,,0.00,Wunderground v.1.15,2013-05-12 07:56:00,
2013-05-12 02:58:00,65.5,47.9,30.01,NE,51,2.0,3.0,53,0.00,,,0.00,Wunderground v.1.15,2013-05-12 07:58:00,
2013-05-12 03:01:00,65.5,48.4,30.01,NE,45,2.0,2.0,54,0.00,,,0.00,Wunderground v.1.15,2013-05-12 08:01:00,
2013-05-12 03:02:00,65.3,48.2,30.01,NE,47,2.0,2.0,54,0.00,,,0.00,Wunderground v.1.15,2013-05-12 08:02:00,
2013-05-12 03:04:00,65.3,48.2,30.01,NNE,25,2.0,3.0,54,0.00,,,0.00,Wunderground v.1.15,2013-05-12 08:04:00,
2013-05-12 03:06:00,65.2,48.1,30.01,NE,35,2.0,4.0,54,0.00,,,0.00,Wunderground v.1.15,2013-05-12 08:06:00,
2013-05-12 03:08:00,65.2,48.1,30.01,NE,40,2.0,4.0,54,0.00,,,0.00,Wunderground v.1.15,2013-05-12 08:08:00,
2013-05-12 03:12:00,65.0,48.4,30.01,NE,35,2.0,2.0,55,0.00,,,0.00,Wunderground v.1.15,2013-05-12 08:12:00,
2013-05-12 03:13:00,65.0,47.9,30.01,NE,35,2.0,2.0,54,0.00,,,0.00,Wunderground v.1.15,2013-05-12 08:13:00,
2013-05-12 03:14:00,64.8,47.8,30.01,NNE,25,2.0,3.0,54,0.00,,,0.00,Wunderground v.1.15,2013-05-12 08:14:00,
2013-05-12 03:15:00,64.8,47.8,30.01,NNE,21,2.0,5.0,54,0.00,,,0.00,Wunderground v.1.15,2013-05-12 08:15:00,
2013-05-12 03:16:00,64.8,47.8,30.01,North,0,2.0,5.0,54,0.00,,,0.00,Wunderground v.1.15,2013-05-12 08:16:00,
2013-05-12 03:19:00,64.7,47.7,30.01,North,6,2.0,5.0,54,0.00,,,0.00,Wunderground v.1.15,2013-05-12 08:19:00,
2013-05-12 03:21:00,64.7,47.7,30.01,North,359,3.0,3.0,54,0.00,,,0.00,Wunderground v.1.15,2013-05-12 08:21:00,
2013-05-12 03:24:00,64.7,47.7,30.01,North,359,3.0,5.0,54,0.00,,,0.00,Wunderground v.1.15,2013-05-12 08:24:00,
2013-05-12 03:25:00,64.7,47.7,30.01,North,359,2.0,5.0,54,0.00,,,0.00,Wunderground v.1.15,2013-05-12 08:25:00,
2013-05-12 03:27:00,64.7,47.7,30.01,North,0,2.0,5.0,54,0.00,,,0.00,Wunderground v.1.15,2013-05-12 08:27:00,
2013-05-12 03:29:00,64.7,47.7,30.01,North,0,2.0,5.0,54,0.00,,,0.00,Wunderground v.1.15,2013-05-12 08:29:00,
2013-05-12 03:31:00,64.5,47.5,30.01,North,0,2.0,2.0,54,0.00,,,0.00,Wunderground v.1.15,2013-05-12 08:31:00,
2013-05-12 03:32:00,64.5,47.5,30.01,North,0,2.0,2.0,54,0.00,,,0.00,Wunderground v.1.15,2013-05-12 08:32:00,
2013-05-12 03:34:00,64.5,47.5,30.01,North,0,2.0,3.0,54,0.00,,,0.00,Wunderground v.1.15,2013-05-12 08:34:00,
2013-05-12 03:38:00,64.5,47.5,30.01,NNE,21,1.0,3.0,54,0.00,,,0.00,Wunderground v.1.15,2013-05-12 08:38:00,
2013-05-12 03:39:00,64.5,47.5,30.01,NNE,23,1.0,5.0,54,0.00,,,0.00,Wunderground v.1.15,2013-05-12 08:39:00,
2013-05-12 03:42:00,64.3,47.8,30.01,NNE,23,1.0,2.0,55,0.00,,,0.00,Wunderground v.1.15,2013-05-12 08:42:00,
2013-05-12 03:43:00,64.3,47.8,30.01,North,11,1.0,2.0,55,0.00,,,0.00,Wunderground v.1.15,2013-05-12 08:43:00,
2013-05-12 03:44:00,64.3,47.8,30.01,North,11,1.0,2.0,55,0.00,,,0.00,Wunderground v.1.15,2013-05-12 08:44:00,
2013-05-12 03:45:00,64.3,47.8,30.01,North,11,1.0,2.0,55,0.00,,,0.00,Wunderground v.1.15,2013-05-12 08:45:00,
2013-05-12 03:47:00,64.3,47.8,30.02,North,353,2.0,4.0,55,0.00,,,0.00,Wunderground v.1.15,2013-05-12 08:47:00,
2013-05-12 03:48:00,64.3,47.8,30.02,North,353,2.0,4.0,55,0.00,,,0.00,Wunderground v.1.15,2013-05-12 08:48:00,
2013-05-12 03:49:00,64.3,47.8,30.02,NNE,18,2.0,5.0,55,0.00,,,0.00,Wunderground v.1.15,2013-05-12 08:49:00,
2013-05-12 03:51:00,64.3,47.8,30.02,NNW,343,2.0,3.0,55,0.00,,,0.00,Wunderground v.1.15,2013-05-12 08:51:00,
2013-05-12 03:53:00,64.3,47.8,30.02,NNW,343,3.0,6.0,55,0.00,,,0.00,Wunderground v.1.15,2013-05-12 08:53:00,
2013-05-12 03:54:00,64.2,47.7,30.02,NNW,343,3.0,6.0,55,0.00,,,0.00,Wunderground v.1.15,2013-05-12 08:54:00,
2013-05-12 03:55:00,64.2,47.7,30.02,NNW,344,3.0,6.0,55,0.00,,,0.00,Wunderground v.1.15,2013-05-12 08:55:00,
2013-05-12 03:57:00,64.2,47.7,30.02,NNW,344,3.0,6.0,55,0.00,,,0.00,Wunderground v.1.15,2013-05-12 08:57:00,
2013-05-12 03:59:00,64.0,48.0,30.02,North,359,3.0,6.0,56,0.00,,,0.00,Wunderground v.1.15,2013-05-12 08:59:00,
2013-05-12 04:01:00,64.0,48.0,30.02,NNW,344,3.0,3.0,56,0.00,,,0.00,Wunderground v.1.15,2013-05-12 09:01:00,
2013-05-12 04:02:00,63.9,48.4,30.02,NNW,344,3.0,3.0,57,0.00,,,0.00,Wunderground v.1.15,2013-05-12 09:02:00,
2013-05-12 04:03:00,63.9,48.4,30.02,NNW,344,3.0,3.0,57,0.00,,,0.00,Wunderground v.1.15,2013-05-12 09:03:00,
2013-05-12 04:05:00,63.7,48.6,30.02,NNW,335,3.0,5.0,58,0.00,,,0.00,Wunderground v.1.15,2013-05-12 09:05:00,
2013-05-12 04:07:00,63.5,48.5,30.02,NNW,333,3.0,5.0,58,0.00,,,0.00,Wunderground v.1.15,2013-05-12 09:07:00,
2013-05-12 04:08:00,63.5,48.5,30.02,NNW,335,3.0,5.0,58,0.00,,,0.00,Wunderground v.1.15,2013-05-12 09:08:00,
2013-05-12 04:09:00,63.5,48.5,30.02,NNW,333,3.0,5.0,58,0.00,,,0.00,Wunderground v.1.15,2013-05-12 09:09:00,
2013-05-12 04:13:00,63.2,49.1,30.02,NNW,335,2.0,3.0,60,0.00,,,0.00,Wunderground v.1.15,2013-05-12 09:13:00,
2013-05-12 04:16:00,63.1,49.4,30.02,NNW,332,2.0,3.0,61,0.00,,,0.00,Wunderground v.1.15,2013-05-12 09:16:00,
2013-05-12 04:18:00,62.9,49.2,30.02,NNW,339,2.0,3.0,61,0.00,,,0.00,Wunderground v.1.15,2013-05-12 09:18:00,
2013-05-12 04:19:00,62.9,49.2,30.02,NNW,330,2.0,5.0,61,0.00,,,0.00,Wunderground v.1.15,2013-05-12 09:19:00,
2013-05-12 04:21:00,62.7,49.5,30.02,NNW,330,2.0,5.0,62,0.00,,,0.00,Wunderground v.1.15,2013-05-12 09:21:00,
2013-05-12 04:24:00,62.6,49.4,30.02,NNW,332,2.0,5.0,62,0.00,,,0.00,Wunderground v.1.15,2013-05-12 09:24:00,
2013-05-12 04:25:00,62.4,49.6,30.02,NNW,332,2.0,5.0,63,0.00,,,0.00,Wunderground v.1.15,2013-05-12 09:25:00,
2013-05-12 04:26:00,62.4,49.6,30.02,NNW,335,2.0,5.0,63,0.00,,,0.00,Wunderground v.1.15,2013-05-12 09:26:00,
2013-05-12 04:28:00,62.3,49.5,30.02,NNW,335,2.0,5.0,63,0.00,,,0.00,Wunderground v.1.15,2013-05-12 09:28:00,
2013-05-12 04:31:00,62.1,49.8,30.03,NNW,328,2.0,3.0,64,0.00,,,0.00,Wunderground v.1.15,2013-05-12 09:31:00,
2013-05-12 04:32:00,62.1,49.8,30.03,NNW,328,2.0,3.0,64,0.00,,,0.00,Wunderground v.1.15,2013-05-12 09:32:00,
2013-05-12 04:33:00,62.1,49.8,30.03,NNW,328,2.0,3.0,64,0.00,,,0.00,Wunderground v.1.15,2013-05-12 09:33:00,
2013-05-12 04:34:00,62.0,49.7,30.03,NW,325,2.0,6.0,64,0.00,,,0.00,Wunderground v.1.15,2013-05-12 09:34:00,
2013-05-12 04:36:00,62.0,50.1,30.03,North,356,3.0,6.0,65,0.00,,,0.00,Wunderground v.1.15,2013-05-12 09:36:00,
2013-05-12 04:38:00,61.8,49.9,30.03,NNW,337,3.0,6.0,65,0.00,,,0.00,Wunderground v.1.15,2013-05-12 09:38:00,
2013-05-12 04:41:00,61.6,49.7,30.03,North,352,3.0,3.0,65,0.00,,,0.00,Wunderground v.1.15,2013-05-12 09:41:00,
2013-05-12 04:42:00,61.6,49.7,30.03,North,0,3.0,3.0,65,0.00,,,0.00,Wunderground v.1.15,2013-05-12 09:42:00,
2013-05-12 04:44:00,61.5,49.6,30.03,North,356,3.0,5.0,65,0.00,,,0.00,Wunderground v.1.15,2013-05-12 09:44:00,
2013-05-12 04:46:00,61.5,49.6,30.02,North,354,3.0,5.0,65,0.00,,,0.00,Wunderground v.1.15,2013-05-12 09:46:00,
2013-05-12 04:47:00,61.5,49.6,30.02,North,353,3.0,5.0,65,0.00,,,0.00,Wunderground v.1.15,2013-05-12 09:47:00,
2013-05-12 04:51:00,61.3,49.4,30.02,North,359,3.0,5.0,65,0.00,,,0.00,Wunderground v.1.15,2013-05-12 09:51:00,
2013-05-12 04:52:00,61.3,49.4,30.02,North,0,3.0,5.0,65,0.00,,,0.00,Wunderground v.1.15,2013-05-12 09:52:00,
2013-05-12 04:55:00,61.2,49.3,30.02,North,352,3.0,5.0,65,0.00,,,0.00,Wunderground v.1.15,2013-05-12 09:55:00,
2013-05-12 04:57:00,61.2,49.3,30.02,North,353,3.0,6.0,65,0.00,,,0.00,Wunderground v.1.15,2013-05-12 09:57:00,
2013-05-12 05:01:00,61.2,49.3,30.03,North,0,3.0,5.0,65,0.00,,,0.00,Wunderground v.1.15,2013-05-12 10:01:00,
2013-05-12 05:03:00,61.3,49.4,30.03,North,359,3.0,5.0,65,0.00,,,0.00,Wunderground v.1.15,2013-05-12 10:03:00,
2013-05-12 05:04:00,61.3,49.4,30.03,North,0,3.0,5.0,65,0.00,,,0.00,Wunderground v.1.15,2013-05-12 10:04:00,
2013-05-12 05:08:00,61.3,49.0,30.03,North,0,3.0,5.0,64,0.00,,,0.00,Wunderground v.1.15,2013-05-12 10:08:00,
2013-05-12 05:09:00,61.5,49.2,30.03,North,0,3.0,5.0,64,0.00,,,0.00,Wunderground v.1.15,2013-05-12 10:09:00,
2013-05-12 05:11:00,61.5,49.2,30.03,North,357,3.0,6.0,64,0.00,,,0.00,Wunderground v.1.15,2013-05-12 10:11:00,
2013-05-12 05:12:00,61.5,48.8,30.03,NW,315,3.0,6.0,63,0.00,,,0.00,Wunderground v.1.15,2013-05-12 10:12:00,
2013-05-12 05:17:00,61.8,48.6,30.02,North,8,4.0,6.0,62,0.00,,,0.00,Wunderground v.1.15,2013-05-12 10:17:00,
2013-05-12 05:18:00,62.0,48.8,30.02,North,0,4.0,6.0,62,0.00,,,0.00,Wunderground v.1.15,2013-05-12 10:18:00,
2013-05-12 05:19:00,62.0,48.4,30.02,North,0,4.0,6.0,61,0.00,,,0.00,Wunderground v.1.15,2013-05-12 10:19:00,
2013-05-12 05:21:00,62.1,48.5,30.02,NNE,23,4.0,4.0,61,0.00,,,0.00,Wunderground v.1.15,2013-05-12 10:21:00,
2013-05-12 05:24:00,62.4,48.3,30.02,NNE,20,5.0,5.0,60,0.00,,,0.00,Wunderground v.1.15,2013-05-12 10:24:00,
2013-05-12 05:25:00,62.6,48.1,30.02,NNE,30,5.0,6.0,59,0.00,,,0.00,Wunderground v.1.15,2013-05-12 10:25:00,
2013-05-12 05:26:00,62.6,48.1,30.02,North,8,5.0,6.0,59,0.00,,,0.00,Wunderground v.1.15,2013-05-12 10:26:00,
2013-05-12 05:28:00,62.9,47.9,30.02,North,11,5.0,6.0,58,0.00,,,0.00,Wunderground v.1.15,2013-05-12 10:28:00,
2013-05-12 05:31:00,63.1,48.1,30.02,NNE,21,5.0,5.0,58,0.00,,,0.00,Wunderground v.1.15,2013-05-12 10:31:00,
2013-05-12 05:32:00,63.1,48.1,30.03,North,0,5.0,7.0,58,0.00,,,0.00,Wunderground v.1.15,2013-05-12 10:32:00,
2013-05-12 05:37:00,63.4,47.9,30.03,NNE,32,5.0,8.0,57,0.00,,,0.00,Wunderground v.1.15,2013-05-12 10:37:00,
2013-05-12 05:38:00,63.5,48.0,30.03,NNE,24,5.0,8.0,57,0.00,,,0.00,Wunderground v.1.15,2013-05-12 10:38:00,
2013-05-12 05:43:00,63.7,48.2,30.03,North,1,5.0,6.0,57,0.00,,,0.00,Wunderground v.1.15,2013-05-12 10:43:00,
2013-05-12 05:45:00,63.7,48.2,30.03,NNE,24,5.0,6.0,57,0.00,,,0.00,Wunderground v.1.15,2013-05-12 10:45:00,
2013-05-12 05:48:00,63.7,47.7,30.02,North,0,4.0,7.0,56,0.00,,,0.00,Wunderground v.1.15,2013-05-12 10:48:00,
2013-05-12 05:49:00,63.7,47.7,30.02,North,0,4.0,7.0,56,0.00,,,0.00,Wunderground v.1.15,2013-05-12 10:49:00,
2013-05-12 05:51:00,63.9,47.9,30.02,NNE,23,4.0,4.0,56,0.00,,,0.00,Wunderground v.1.15,2013-05-12 10:51:00,
2013-05-12 05:54:00,63.9,47.9,30.02,North,0,4.0,5.0,56,0.00,,,0.00,Wunderground v.1.15,2013-05-12 10:54:00,
2013-05-12 05:56:00,63.9,47.9,30.02,North,6,4.0,5.0,56,0.00,,,0.00,Wunderground v.1.15,2013-05-12 10:56:00,
2013-05-12 05:57:00,63.9,47.9,30.02,North,7,4.0,5.0,56,0.00,,,0.00,Wunderground v.1.15,2013-05-12 10:57:00,
2013-05-12 06:01:00,63.9,47.9,30.02,NE,38,3.0,3.0,56,0.00,,,0.00,Wunderground v.1.15,2013-05-12 11:01:00,
2013-05-12 06:02:00,63.9,47.9,30.03,North,10,3.0,5.0,56,0.00,,,0.00,Wunderground v.1.15,2013-05-12 11:02:00,
2013-05-12 06:04:00,63.9,47.9,30.03,North,11,3.0,5.0,56,0.00,,,0.00,Wunderground v.1.15,2013-05-12 11:04:00,
2013-05-12 06:06:00,63.9,47.9,30.03,North,3,3.0,5.0,56,0.00,,,0.00,Wunderground v.1.15,2013-05-12 11:06:00,
2013-05-12 06:07:00,63.9,47.9,30.03,North,3,3.0,5.0,56,0.00,,,0.00,Wunderground v.1.15,2013-05-12 11:07:00,
2013-05-12 06:08:00,63.7,47.7,30.03,North,8,3.0,5.0,56,0.00,,,0.00,Wunderground v.1.15,2013-05-12 11:08:00,
2013-05-12 06:13:00,63.7,48.2,30.03,North,4,2.0,3.0,57,0.00,,,0.00,Wunderground v.1.15,2013-05-12 11:13:00,
2013-05-12 06:14:00,63.7,48.2,30.03,North,4,2.0,3.0,57,0.00,,,0.00,Wunderground v.1.15,2013-05-12 11:14:00,
2013-05-12 06:15:00,63.5,48.0,30.03,North,3,2.0,3.0,57,0.00,,,0.00,Wunderground v.1.15,2013-05-12 11:15:00,
2013-05-12 06:16:00,63.5,48.0,30.03,North,3,2.0,3.0,57,0.00,,,0.00,Wunderground v.1.15,2013-05-12 11:16:00,
2013-05-12 06:17:00,63.5,48.5,30.03,North,4,2.0,3.0,58,0.00,,,0.00,Wunderground v.1.15,2013-05-12 11:17:00,
2013-05-12 06:21:00,63.4,48.4,30.03,North,6,2.0,2.0,58,0.00,,,0.00,Wunderground v.1.15,2013-05-12 11:21:00,
2013-05-12 06:22:00,63.2,48.2,30.03,North,6,2.0,2.0,58,0.00,,,0.00,Wunderground v.1.15,2013-05-12 11:22:00,
2013-05-12 06:26:00,63.1,48.1,30.03,North,6,2.0,3.0,58,0.00,,,0.00,Wunderground v.1.15,2013-05-12 11:26:00,
2013-05-12 06:27:00,63.1,48.5,30.03,North,7,2.0,3.0,59,0.00,,,0.00,Wunderground v.1.15,2013-05-12 11:27:00,
2013-05-12 06:28:00,62.9,48.3,30.03,NNE,13,2.0,3.0,59,0.00,,,0.00,Wunderground v.1.15,2013-05-12 11:28:00,
2013-05-12 06:32:00,62.7,48.2,30.04,NNE,13,2.0,3.0,59,0.00,,,0.00,Wunderground v.1.15,2013-05-12 11:32:00,
2013-05-12 06:33:00,62.7,48.2,30.04,NNE,13,2.0,3.0,59,0.00,,,0.00,Wunderground v.1.15,2013-05-12 11:33:00,
2013-05-12 06:35:00,62.6,48.5,30.04,NNE,13,2.0,3.0,60,0.00,,,0.00,Wunderground v.1.15,2013-05-12 11:35:00,
2013-05-12 06:37:00,62.4,48.3,30.04,NNE,13,2.0,3.0,60,0.00,,,0.00,Wunderground v.1.15,2013-05-12 11:37:00,
2013-05-12 06:38:00,62.4,48.3,30.04,NNE,13,1.0,3.0,60,0.00,,,0.00,Wunderground v.1.15,2013-05-12 11:38:00,
2013-05-12 06:41:00,62.3,48.2,30.04,NNE,13,1.0,3.0,60,0.00,,,0.00,Wunderground v.1.15,2013-05-12 11:41:00,
2013-05-12 06:43:00,62.1,48.5,30.04,North,11,1.0,2.0,61,0.00,,,0.00,Wunderground v.1.15,2013-05-12 11:43:00,
2013-05-12 06:46:00,62.1,48.5,30.05,North,10,1.0,2.0,61,0.00,,,0.00,Wunderground v.1.15,2013-05-12 11:46:00,
2013-05-12 06:47:00,62.0,48.4,30.05,North,10,1.0,3.0,61,0.00,,,0.00,Wunderground v.1.15,2013-05-12 11:47:00,
2013-05-12 06:51:00,61.8,48.6,30.05,North,0,2.0,3.0,62,0.00,,,0.00,Wunderground v.1.15,2013-05-12 11:51:00,
2013-05-12 06:53:00,61.6,48.4,30.05,North,0,2.0,3.0,62,0.00,,,0.00,Wunderground v.1.15,2013-05-12 11:53:00,
2013-05-12 06:56:00,61.5,48.4,30.05,North,0,2.0,6.0,62,0.00,,,0.00,Wunderground v.1.15,2013-05-12 11:56:00,
2013-05-12 06:58:00,61.5,48.4,30.05,North,0,2.0,6.0,62,0.00,,,0.00,Wunderground v.1.15,2013-05-12 11:58:00,
2013-05-12 06:59:00,61.5,48.4,30.05,North,0,2.0,6.0,62,0.00,,,0.00,Wunderground v.1.15,2013-05-12 11:59:00,
2013-05-12 07:01:00,61.5,48.4,30.05,North,1,2.0,2.0,62,0.00,,,0.00,Wunderground v.1.15,2013-05-12 12:01:00,
2013-05-12 07:02:00,61.5,48.4,30.06,North,1,2.0,2.0,62,0.00,,,0.00,Wunderground v.1.15,2013-05-12 12:02:00,
2013-05-12 07:05:00,61.3,48.2,30.06,North,3,2.0,3.0,62,0.00,,,0.00,Wunderground v.1.15,2013-05-12 12:05:00,
2013-05-12 07:06:00,61.3,48.2,30.06,North,3,2.0,3.0,62,0.00,,,0.00,Wunderground v.1.15,2013-05-12 12:06:00,
2013-05-12 07:08:00,61.3,48.2,30.06,North,4,2.0,3.0,62,0.00,,,0.00,Wunderground v.1.15,2013-05-12 12:08:00,
2013-05-12 07:12:00,61.5,48.4,30.06,North,7,2.0,3.0,62,0.00,,,0.00,Wunderground v.1.15,2013-05-12 12:12:00,
2013-05-12 07:13:00,61.5,48.4,30.06,North,7,2.0,3.0,62,0.00,,,0.00,Wunderground v.1.15,2013-05-12 12:13:00,
2013-05-12 07:15:00,61.6,48.4,30.06,North,7,2.0,3.0,62,0.00,,,0.00,Wunderground v.1.15,2013-05-12 12:15:00,
2013-05-12 07:18:00,61.8,48.6,30.07,NNE,23,2.0,5.0,62,0.00,,,0.00,Wunderground v.1.15,2013-05-12 12:18:00,
2013-05-12 07:19:00,61.8,48.6,30.07,NNE,16,2.0,5.0,62,0.00,,,0.00,Wunderground v.1.15,2013-05-12 12:19:00,
2013-05-12 07:21:00,62.0,48.8,30.07,North,0,2.0,2.0,62,0.00,,,0.00,Wunderground v.1.15,2013-05-12 12:21:00,
2013-05-12 07:25:00,62.3,48.7,30.07,North,11,3.0,6.0,61,0.00,,,0.00,Wunderground v.1.15,2013-05-12 12:25:00,
2013-05-12 07:27:00,62.4,48.8,30.07,North,359,2.0,6.0,61,0.00,,,0.00,Wunderground v.1.15,2013-05-12 12:27:00,
2013-05-12 07:28:00,62.4,48.8,30.07,NNE,13,2.0,6.0,61,0.00,,,0.00,Wunderground v.1.15,2013-05-12 12:28:00,
2013-05-12 07:29:00,62.6,49.0,30.07,North,11,2.0,6.0,61,0.00,,,0.00,Wunderground v.1.15,2013-05-12 12:29:00,
2013-05-12 07:33:00,62.9,48.8,30.08,North,4,2.0,2.0,60,0.00,,,0.00,Wunderground v.1.15,2013-05-12 12:33:00,
2013-05-12 07:34:00,63.1,49.0,30.08,North,1,2.0,2.0,60,0.00,,,0.00,Wunderground v.1.15,2013-05-12 12:34:00,
2013-05-12 07:38:00,63.4,48.8,30.08,North,7,3.0,3.0,59,0.00,,,0.00,Wunderground v.1.15,2013-05-12 12:38:00,
2013-05-12 07:41:00,63.7,49.1,30.08,North,8,2.0,2.0,59,0.00,,,0.00,Wunderground v.1.15,2013-05-12 12:41:00,
2013-05-12 07:43:00,64.0,49.4,30.08,ENE,64,2.0,2.0,59,0.00,,,0.00,Wunderground v.1.15,2013-05-12 12:43:00,
2013-05-12 07:46:00,64.3,49.7,30.10,NE,47,2.0,2.0,59,0.00,,,0.00,Wunderground v.1.15,2013-05-12 12:46:00,
2013-05-12 07:49:00,64.5,49.4,30.10,NE,47,1.0,2.0,58,0.00,,,0.00,Wunderground v.1.15,2013-05-12 12:49:00,
2013-05-12 07:50:00,64.7,49.6,30.10,NE,35,1.0,2.0,58,0.00,,,0.00,Wunderground v.1.15,2013-05-12 12:50:00,
2013-05-12 07:51:00,64.8,49.7,30.10,NE,35,1.0,1.0,58,0.00,,,0.00,Wunderground v.1.15,2013-05-12 12:51:00,
2013-05-12 07:52:00,64.8,49.7,30.10,NE,35,1.0,3.0,58,0.00,,,0.00,Wunderground v.1.15,2013-05-12 12:52:00,
2013-05-12 07:56:00,65.0,49.9,30.10,NNE,32,2.0,5.0,58,0.00,,,0.00,Wunderground v.1.15,2013-05-12 12:56:00,
2013-05-12 07:57:00,65.0,49.4,30.10,NE,34,2.0,5.0,57,0.00,,,0.00,Wunderground v.1.15,2013-05-12 12:57:00,
2013-05-12 07:58:00,65.2,50.0,30.10,NE,34,2.0,5.0,58,0.00,,,0.00,Wunderground v.1.15,2013-05-12 12:58:00,
2013-05-12 08:00:00,65.2,49.6,30.10,NNE,16,2.0,2.0,57,0.00,,,0.00,Wunderground v.1.15,2013-05-12 13:00:00,
2013-05-12 08:02:00,65.2,50.0,30.09,NNE,20,2.0,5.0,58,0.00,,,0.00,Wunderground v.1.15,2013-05-12 13:02:00,
2013-05-12 08:03:00,65.0,49.4,30.09,NNE,16,3.0,5.0,57,0.00,,,0.00,Wunderground v.1.15,2013-05-12 13:03:00,
2013-05-12 08:05:00,65.0,49.4,30.09,NNE,28,3.0,6.0,57,0.00,,,0.00,Wunderground v.1.15,2013-05-12 13:05:00,
2013-05-12 08:06:00,65.0,49.4,30.09,NE,54,3.0,6.0,57,0.00,,,0.00,Wunderground v.1.15,2013-05-12 13:06:00,
2013-05-12 08:09:00,65.0,49.9,30.09,NE,54,3.0,6.0,58,0.00,,,0.00,Wunderground v.1.15,2013-05-12 13:09:00,
2013-05-12 08:12:00,65.0,49.9,30.09,North,1,3.0,3.0,58,0.00,,,0.00,Wunderground v.1.15,2013-05-12 13:12:00,
2013-05-12 08:13:00,65.0,49.9,30.09,North,1,3.0,3.0,58,0.00,,,0.00,Wunderground v.1.15,2013-05-12 13:13:00,
2013-05-12 08:14:00,65.0,49.9,30.09,North,1,2.0,3.0,58,0.00,,,0.00,Wunderground v.1.15,2013-05-12 13:14:00,
2013-05-12 08:17:00,64.8,49.7,30.11,North,3,1.0,3.0,58,0.00,,,0.00,Wunderground v.1.15,2013-05-12 13:17:00,
2013-05-12 08:18:00,64.8,49.7,30.11,North,8,1.0,6.0,58,0.00,,,0.00,Wunderground v.1.15,2013-05-12 13:18:00,
2013-05-12 08:19:00,64.8,49.7,30.11,North,8,1.0,6.0,58,0.00,,,0.00,Wunderground v.1.15,2013-05-12 13:19:00,
2013-05-12 08:21:00,64.8,49.7,30.11,North,8,1.0,1.0,58,0.00,,,0.00,Wunderground v.1.15,2013-05-12 13:21:00,
2013-05-12 08:23:00,64.8,50.1,30.11,North,8,1.0,1.0,59,0.00,,,0.00,Wunderground v.1.15,2013-05-12 13:23:00,
2013-05-12 08:25:00,64.8,50.1,30.11,North,7,1.0,1.0,59,0.00,,,0.00,Wunderground v.1.15,2013-05-12 13:25:00,
2013-05-12 08:26:00,64.8,50.1,30.11,North,7,1.0,2.0,59,0.00,,,0.00,Wunderground v.1.15,2013-05-12 13:26:00,
2013-05-12 08:28:00,64.7,50.0,30.11,North,7,1.0,3.0,59,0.00,,,0.00,Wunderground v.1.15,2013-05-12 13:28:00,
2013-05-12 08:29:00,64.7,50.0,30.11,North,4,2.0,3.0,59,0.00,,,0.00,Wunderground v.1.15,2013-05-12 13:29:00,
2013-05-12 08:31:00,64.7,50.0,30.12,North,4,2.0,3.0,59,0.00,,,0.00,Wunderground v.1.15,2013-05-12 13:31:00,
2013-05-12 08:33:00,64.7,50.0,30.12,North,6,2.0,3.0,59,0.00,,,0.00,Wunderground v.1.15,2013-05-12 13:33:00,
2013-05-12 08:35:00,64.7,50.0,30.12,North,3,2.0,3.0,59,0.00,,,0.00,Wunderground v.1.15,2013-05-12 13:35:00,
2013-05-12 08:36:00,64.7,50.0,30.12,North,3,2.0,3.0,59,0.00,,,0.00,Wunderground v.1.15,2013-05-12 13:36:00,
2013-05-12 08:37:00,64.7,50.5,30.12,North,3,2.0,4.0,60,0.00,,,0.00,Wunderground v.1.15,2013-05-12 13:37:00,
2013-05-12 08:42:00,64.7,50.0,30.12,North,0,2.0,3.0,59,0.00,,,0.00,Wunderground v.1.15,2013-05-12 13:42:00,
2013-05-12 08:43:00,64.7,50.0,30.12,NNE,14,2.0,5.0,59,0.00,,,0.00,Wunderground v.1.15,2013-05-12 13:43:00,
2013-05-12 08:44:00,64.7,50.0,30.12,NNE,14,2.0,5.0,59,0.00,,,0.00,Wunderground v.1.15,2013-05-12 13:44:00,
2013-05-12 08:47:00,64.7,50.0,30.13,NNE,14,2.0,5.0,59,0.00,,,0.00,Wunderground v.1.15,2013-05-12 13:47:00,
2013-05-12 08:49:00,64.7,50.0,30.13,North,7,2.0,5.0,59,0.00,,,0.00,Wunderground v.1.15,2013-05-12 13:49:00,
2013-05-12 08:50:00,64.7,50.5,30.13,North,7,2.0,5.0,60,0.00,,,0.00,Wunderground v.1.15,2013-05-12 13:50:00,
2013-05-12 08:52:00,64.8,50.6,30.13,North,7,2.0,2.0,60,0.00,,,0.00,Wunderground v.1.15,2013-05-12 13:52:00,
2013-05-12 08:54:00,64.8,50.6,30.13,North,7,2.0,2.0,60,0.00,,,0.00,Wunderground v.1.15,2013-05-12 13:54:00,
2013-05-12 08:56:00,64.8,50.6,30.13,North,352,2.0,6.0,60,0.00,,,0.00,Wunderground v.1.15,2013-05-12 13:56:00,
2013-05-12 08:58:00,64.8,50.6,30.13,North,350,2.0,6.0,60,0.00,,,0.00,Wunderground v.1.15,2013-05-12 13:58:00,
2013-05-12 09:00:00,64.8,50.6,30.13,North,353,2.0,2.0,60,0.00,,,0.00,Wunderground v.1.15,2013-05-12 14:00:00,
2013-05-12 09:02:00,64.8,50.6,30.14,North,353,2.0,3.0,60,0.00,,,0.00,Wunderground v.1.15,2013-05-12 14:02:00,
2013-05-12 09:03:00,64.8,50.6,30.14,North,352,2.0,3.0,60,0.00,,,0.00,Wunderground v.1.15,2013-05-12 14:03:00,
2013-05-12 09:06:00,64.8,50.6,30.14,North,352,2.0,3.0,60,0.00,,,0.00,Wunderground v.1.15,2013-05-12 14:06:00,
2013-05-12 09:09:00,64.8,50.6,30.14,North,0,2.0,3.0,60,0.00,,,0.00,Wunderground v.1.15,2013-05-12 14:09:00,
2013-05-12 09:11:00,64.8,50.6,30.14,NNW,332,2.0,2.0,60,0.00,,,0.00,Wunderground v.1.15,2013-05-12 14:11:00,
2013-05-12 09:14:00,64.8,50.6,30.14,North,359,2.0,3.0,60,0.00,,,0.00,Wunderground v.1.15,2013-05-12 14:14:00,
2013-05-12 09:16:00,65.0,51.2,30.14,North,359,3.0,3.0,61,0.00,,,0.00,Wunderground v.1.15,2013-05-12 14:16:00,
2013-05-12 09:17:00,65.0,51.2,30.15,North,0,3.0,3.0,61,0.00,,,0.00,Wunderground v.1.15,2013-05-12 14:17:00,
2013-05-12 09:18:00,65.0,51.2,30.15,North,354,3.0,3.0,61,0.00,,,0.00,Wunderground v.1.15,2013-05-12 14:18:00,
2013-05-12 09:19:00,65.0,51.2,30.15,NNW,347,3.0,6.0,61,0.00,,,0.00,Wunderground v.1.15,2013-05-12 14:19:00,
2013-05-12 09:20:00,65.0,51.2,30.15,NNW,342,2.0,3.0,61,0.00,,,0.00,Wunderground v.1.15,2013-05-12 14:20:00,
2013-05-12 09:22:00,65.2,51.4,30.15,NNW,333,2.0,6.0,61,0.00,,,0.00,Wunderground v.1.15,2013-05-12 14:22:00,
2013-05-12 09:24:00,65.2,51.4,30.15,North,0,3.0,6.0,61,0.00,,,0.00,Wunderground v.1.15,2013-05-12 14:24:00,
2013-05-12 09:26:00,65.2,51.0,30.15,NNE,14,3.0,6.0,60,0.00,,,0.00,Wunderground v.1.15,2013-05-12 14:26:00,
2013-05-12 09:27:00,65.2,51.0,30.15,North,8,3.0,6.0,60,0.00,,,0.00,Wunderground v.1.15,2013-05-12 14:27:00,
2013-05-12 09:28:00,65.2,51.0,30.15,North,6,3.0,6.0,60,0.00,,,0.00,Wunderground v.1.15,2013-05-12 14:28:00,
2013-05-12 09:29:00,65.2,51.0,30.15,North,3,3.0,6.0,60,0.00,,,0.00,Wunderground v.1.15,2013-05-12 14:29:00,
2013-05-12 09:33:00,65.2,51.0,30.15,North,354,3.0,4.0,60,0.00,,,0.00,Wunderground v.1.15,2013-05-12 14:33:00,
2013-05-12 09:34:00,65.2,51.0,30.15,NNE,21,3.0,5.0,60,0.00,,,0.00,Wunderground v.1.15,2013-05-12 14:34:00,
2013-05-12 09:35:00,65.3,51.1,30.15,NNE,21,3.0,5.0,60,0.00,,,0.00,Wunderground v.1.15,2013-05-12 14:35:00,
2013-05-12 09:38:00,65.3,51.1,30.15,North,0,3.0,5.0,60,0.00,,,0.00,Wunderground v.1.15,2013-05-12 14:38:00,
2013-05-12 09:40:00,65.5,50.8,30.15,North,3,2.0,5.0,59,0.00,,,0.00,Wunderground v.1.15,2013-05-12 14:40:00,
2013-05-12 09:41:00,65.5,50.8,30.15,North,3,2.0,5.0,59,0.00,,,0.00,Wunderground v.1.15,2013-05-12 14:41:00,
2013-05-12 09:43:00,65.5,50.8,30.15,North,11,2.0,5.0,59,0.00,,,0.00,Wunderground v.1.15,2013-05-12 14:43:00,
2013-05-12 09:44:00,65.5,50.3,30.15,NNE,28,3.0,5.0,58,0.00,,,0.00,Wunderground v.1.15,2013-05-12 14:44:00,
2013-05-12 09:48:00,65.6,50.9,30.15,NNW,347,3.0,5.0,59,0.00,,,0.00,Wunderground v.1.15,2013-05-12 14:48:00,
2013-05-12 09:49:00,65.6,50.4,30.15,North,11,3.0,5.0,58,0.00,,,0.00,Wunderground v.1.15,2013-05-12 14:49:00,
2013-05-12 09:50:00,65.8,50.6,30.15,North,11,3.0,3.0,58,0.00,,,0.00,Wunderground v.1.15,2013-05-12 14:50:00,
2013-05-12 09:51:00,65.8,51.1,30.15,North,0,3.0,7.0,59,0.00,,,0.00,Wunderground v.1.15,2013-05-12 14:51:00,
2013-05-12 09:52:00,65.8,50.6,30.15,North,0,3.0,7.0,58,0.00,,,0.00,Wunderground v.1.15,2013-05-12 14:52:00,
2013-05-12 09:55:00,66.0,50.8,30.15,North,359,3.0,7.0,58,0.00,,,0.00,Wunderground v.1.15,2013-05-12 14:55:00,
2013-05-12 09:56:00,66.0,50.8,30.15,North,357,3.0,7.0,58,0.00,,,0.00,Wunderground v.1.15,2013-05-12 14:56:00,
2013-05-12 09:57:00,66.0,50.8,30.15,North,359,3.0,7.0,58,0.00,,,0.00,Wunderground v.1.15,2013-05-12 14:57:00,
2013-05-12 10:01:00,66.1,50.4,30.15,North,3,3.0,7.0,57,0.00,,,0.00,Wunderground v.1.15,2013-05-12 15:01:00,
2013-05-12 10:03:00,66.1,50.4,30.15,North,0,4.0,7.0,57,0.00,,,0.00,Wunderground v.1.15,2013-05-12 15:03:00,
2013-05-12 10:04:00,66.1,50.9,30.15,NNE,13,3.0,7.0,58,0.00,,,0.00,Wunderground v.1.15,2013-05-12 15:04:00,
2013-05-12 10:05:00,66.3,51.1,30.15,North,7,3.0,7.0,58,0.00,,,0.00,Wunderground v.1.15,2013-05-12 15:05:00,
2013-05-12 10:08:00,66.4,51.2,30.15,NE,40,4.0,7.0,58,0.00,,,0.00,Wunderground v.1.15,2013-05-12 15:08:00,
2013-05-12 10:11:00,66.6,51.4,30.15,North,359,4.0,5.0,58,0.00,,,0.00,Wunderground v.1.15,2013-05-12 15:11:00,
2013-05-12 10:12:00,66.8,51.5,30.15,NNE,14,4.0,5.0,58,0.00,,,0.00,Wunderground v.1.15,2013-05-12 15:12:00,
2013-05-12 10:15:00,67.1,51.8,30.15,NE,54,4.0,5.0,58,0.00,,,0.00,Wunderground v.1.15,2013-05-12 15:15:00,
2013-05-12 10:16:00,67.1,51.8,30.14,North,0,4.0,5.0,58,0.00,,,0.00,Wunderground v.1.15,2013-05-12 15:16:00,
2013-05-12 10:17:00,67.3,51.5,30.14,North,0,4.0,6.0,57,0.00,,,0.00,Wunderground v.1.15,2013-05-12 15:17:00,
2013-05-12 10:21:00,67.6,51.8,30.14,NNE,28,4.0,5.0,57,0.00,,,0.00,Wunderground v.1.15,2013-05-12 15:21:00,
2013-05-12 10:22:00,67.6,51.3,30.14,NNE,18,4.0,6.0,56,0.00,,,0.00,Wunderground v.1.15,2013-05-12 15:22:00,
2013-05-12 10:24:00,67.6,51.3,30.14,NE,45,4.0,6.0,56,0.00,,,0.00,Wunderground v.1.15,2013-05-12 15:24:00,
2013-05-12 10:27:00,67.8,51.5,30.14,NNE,17,4.0,6.0,56,0.00,,,0.00,Wunderground v.1.15,2013-05-12 15:27:00,
2013-05-12 10:29:00,67.9,51.6,30.14,NNE,31,4.0,6.0,56,0.00,,,0.00,Wunderground v.1.15,2013-05-12 15:29:00,
2013-05-12 10:30:00,67.9,51.1,30.14,NE,47,4.0,8.0,55,0.00,,,0.00,Wunderground v.1.15,2013-05-12 15:30:00,
2013-05-12 10:33:00,67.9,51.1,30.14,NE,51,4.0,8.0,55,0.00,,,0.00,Wunderground v.1.15,2013-05-12 15:33:00,
2013-05-12 10:35:00,68.1,51.8,30.14,NNE,32,5.0,8.0,56,0.00,,,0.00,Wunderground v.1.15,2013-05-12 15:35:00,
2013-05-12 10:36:00,68.1,51.8,30.14,NNE,32,5.0,8.0,56,0.00,,,0.00,Wunderground v.1.15,2013-05-12 15:36:00,
2013-05-12 10:37:00,68.1,51.8,30.14,NNE,30,5.0,8.0,56,0.00,,,0.00,Wunderground v.1.15,2013-05-12 15:37:00,
2013-05-12 10:41:00,68.3,52.0,30.14,NNE,27,5.0,10.0,56,0.00,,,0.00,Wunderground v.1.15,2013-05-12 15:41:00,
2013-05-12 10:42:00,68.3,51.5,30.14,NNE,31,5.0,10.0,55,0.00,,,0.00,Wunderground v.1.15,2013-05-12 15:42:00,
2013-05-12 10:44:00,68.3,51.5,30.14,North,0,5.0,10.0,55,0.00,,,0.00,Wunderground v.1.15,2013-05-12 15:44:00,
2013-05-12 10:46:00,68.3,51.5,30.14,NE,42,5.0,10.0,55,0.00,,,0.00,Wunderground v.1.15,2013-05-12 15:46:00,
2013-05-12 10:49:00,68.3,51.5,30.13,NE,54,5.0,10.0,55,0.00,,,0.00,Wunderground v.1.15,2013-05-12 15:49:00,
2013-05-12 10:52:00,68.3,51.0,30.13,North,0,6.0,9.0,54,0.00,,,0.00,Wunderground v.1.15,2013-05-12 15:52:00,
2013-05-12 10:53:00,68.3,51.0,30.13,NE,45,6.0,9.0,54,0.00,,,0.00,Wunderground v.1.15,2013-05-12 15:53:00,
2013-05-12 10:56:00,68.1,50.8,30.13,NNE,27,7.0,11.0,54,0.00,,,0.00,Wunderground v.1.15,2013-05-12 15:56:00,
2013-05-12 10:58:00,68.3,51.5,30.13,SE,131,6.0,11.0,55,0.00,,,0.00,Wunderground v.1.15,2013-05-12 15:58:00,
2013-05-12 11:00:00,68.3,51.5,30.13,NNE,20,6.0,6.0,55,0.00,,,0.00,Wunderground v.1.15,2013-05-12 16:00:00,
2013-05-12 11:01:00,68.3,51.5,30.13,NNE,17,6.0,6.0,55,0.00,,,0.00,Wunderground v.1.15,2013-05-12 16:01:00,
2013-05-12 11:05:00,68.6,51.3,30.12,NNE,32,5.0,11.0,54,0.00,,,0.00,Wunderground v.1.15,2013-05-12 16:05:00,
2013-05-12 11:06:00,68.6,51.8,30.12,NNE,13,5.0,11.0,55,0.00,,,0.00,Wunderground v.1.15,2013-05-12 16:06:00,
2013-05-12 11:07:00,68.6,51.3,30.12,NNE,27,5.0,11.0,54,0.00,,,0.00,Wunderground v.1.15,2013-05-12 16:07:00,
2013-05-12 11:12:00,68.8,51.5,30.12,North,0,5.0,8.0,54,0.00,,,0.00,Wunderground v.1.15,2013-05-12 16:12:00,
2013-05-12 11:14:00,68.9,52.1,30.12,NNE,30,6.0,11.0,55,0.00,,,0.00,Wunderground v.1.15,2013-05-12 16:14:00,
2013-05-12 11:16:00,68.9,52.1,30.12,NNE,30,6.0,11.0,55,0.00,,,0.00,Wunderground v.1.15,2013-05-12 16:16:00,
2013-05-12 11:17:00,69.1,52.2,30.10,NNE,13,6.0,11.0,55,0.00,,,0.00,Wunderground v.1.15,2013-05-12 16:17:00,
2013-05-12 11:20:00,69.4,52.0,30.10,NE,42,7.0,7.0,54,0.00,,,0.00,Wunderground v.1.15,2013-05-12 16:20:00,
2013-05-12 11:21:00,69.4,52.0,30.10,NE,49,7.0,7.0,54,0.00,,,0.00,Wunderground v.1.15,2013-05-12 16:21:00,
2013-05-12 11:22:00,69.6,52.7,30.10,NE,45,6.0,7.0,55,0.00,,,0.00,Wunderground v.1.15,2013-05-12 16:22:00,
2013-05-12 11:25:00,69.8,52.4,30.10,NE,35,6.0,11.0,54,0.00,,,0.00,Wunderground v.1.15,2013-05-12 16:25:00,
2013-05-12 11:28:00,69.9,51.5,30.10,NNE,32,6.0,11.0,52,0.00,,,0.00,Wunderground v.1.15,2013-05-12 16:28:00,
2013-05-12 11:29:00,69.9,51.5,30.10,NNE,27,6.0,11.0,52,0.00,,,0.00,Wunderground v.1.15,2013-05-12 16:29:00,
2013-05-12 11:30:00,70.1,51.7,30.10,NE,35,6.0,9.0,52,0.00,,,0.00,Wunderground v.1.15,2013-05-12 16:30:00,
2013-05-12 11:33:00,70.3,51.8,30.09,ENE,59,7.0,9.0,52,0.00,,,0.00,Wunderground v.1.15,2013-05-12 16:33:00,
2013-05-12 11:34:00,70.3,51.8,30.09,ENE,73,7.0,9.0,52,0.00,,,0.00,Wunderground v.1.15,2013-05-12 16:34:00,
2013-05-12 11:36:00,70.6,52.1,30.09,NE,37,7.0,9.0,52,0.00,,,0.00,Wunderground v.1.15,2013-05-12 16:36:00,
2013-05-12 11:37:00,70.8,51.2,30.09,NE,45,7.0,9.0,50,0.00,,,0.00,Wunderground v.1.15,2013-05-12 16:37:00,
2013-05-12 11:38:00,70.8,51.2,30.09,NNE,28,7.0,9.0,50,0.00,,,0.00,Wunderground v.1.15,2013-05-12 16:38:00,
2013-05-12 11:39:00,70.9,51.9,30.09,NE,45,7.0,9.0,51,0.00,,,0.00,Wunderground v.1.15,2013-05-12 16:39:00,
2013-05-12 11:41:00,71.1,52.0,30.09,ENE,61,7.0,8.0,51,0.00,,,0.00,Wunderground v.1.15,2013-05-12 16:41:00,
2013-05-12 11:42:00,71.3,52.2,30.09,NE,42,7.0,8.0,51,0.00,,,0.00,Wunderground v.1.15,2013-05-12 16:42:00,
2013-05-12 11:44:00,71.8,51.6,30.09,NNE,17,6.0,8.0,49,0.00,,,0.00,Wunderground v.1.15,2013-05-12 16:44:00,
2013-05-12 11:46:00,71.8,51.6,30.09,North,0,6.0,8.0,49,0.00,,,0.00,Wunderground v.1.15,2013-05-12 16:46:00,
2013-05-12 11:48:00,72.3,51.5,30.10,NE,51,5.0,8.0,48,0.00,,,0.00,Wunderground v.1.15,2013-05-12 16:48:00,
2013-05-12 11:51:00,72.5,51.7,30.10,East,86,5.0,5.0,48,0.00,,,0.00,Wunderground v.1.15,2013-05-12 16:51:00,
2013-05-12 11:52:00,72.8,52.0,30.10,NE,55,5.0,5.0,48,0.00,,,0.00,Wunderground v.1.15,2013-05-12 16:52:00,
2013-05-12 11:54:00,73.2,51.8,30.10,NNE,25,4.0,5.0,47,0.00,,,0.00,Wunderground v.1.15,2013-05-12 16:54:00,
2013-05-12 11:56:00,73.2,51.8,30.10,North,1,4.0,5.0,47,0.00,,,0.00,Wunderground v.1.15,2013-05-12 16:56:00,
2013-05-12 11:57:00,73.3,51.8,30.10,East,92,4.0,8.0,47,0.00,,,0.00,Wunderground v.1.15,2013-05-12 16:57:00,
2013-05-12 12:01:00,73.3,51.3,30.10,ENE,64,5.0,6.0,46,0.00,,,0.00,Wunderground v.1.15,2013-05-12 17:01:00,
2013-05-12 12:02:00,73.3,51.3,30.10,ENE,64,5.0,6.0,46,0.00,,,0.00,Wunderground v.1.15,2013-05-12 17:02:00,
2013-05-12 12:03:00,73.5,51.4,30.10,ENE,58,5.0,11.0,46,0.00,,,0.00,Wunderground v.1.15,2013-05-12 17:03:00,
2013-05-12 12:07:00,73.5,51.4,30.10,NE,37,6.0,11.0,46,0.00,,,0.00,Wunderground v.1.15,2013-05-12 17:07:00,
2013-05-12 12:08:00,73.7,52.2,30.10,ESE,102,5.0,11.0,47,0.00,,,0.00,Wunderground v.1.15,2013-05-12 17:08:00,
2013-05-12 12:10:00,73.7,50.4,30.10,NNE,14,5.0,5.0,44,0.00,,,0.00,Wunderground v.1.15,2013-05-12 17:10:00,
2013-05-12 12:12:00,73.9,50.6,30.10,NE,44,5.0,6.0,44,0.00,,,0.00,Wunderground v.1.15,2013-05-12 17:12:00,
2013-05-12 12:13:00,73.9,50.0,30.10,East,97,5.0,10.0,43,0.00,,,0.00,Wunderground v.1.15,2013-05-12 17:13:00,
2013-05-12 12:16:00,73.7,49.8,30.10,ESE,106,6.0,13.0,43,0.00,,,0.00,Wunderground v.1.15,2013-05-12 17:16:00,
2013-05-12 12:17:00,73.7,50.4,30.10,East,96,7.0,13.0,44,0.00,,,0.00,Wunderground v.1.15,2013-05-12 17:17:00,
2013-05-12 12:18:00,73.9,51.2,30.10,ENE,78,7.0,13.0,45,0.00,,,0.00,Wunderground v.1.15,2013-05-12 17:18:00,
2013-05-12 12:21:00,74.4,51.1,30.10,ENE,72,6.0,6.0,44,0.00,,,0.00,Wunderground v.1.15,2013-05-12 17:21:00,
2013-05-12 12:22:00,74.6,51.2,30.10,ESE,112,6.0,10.0,44,0.00,,,0.00,Wunderground v.1.15,2013-05-12 17:22:00,
2013-05-12 12:25:00,74.6,51.2,30.10,East,97,6.0,10.0,44,0.00,,,0.00,Wunderground v.1.15,2013-05-12 17:25:00,
2013-05-12 12:26:00,74.4,50.4,30.10,East,96,5.0,10.0,43,0.00,,,0.00,Wunderground v.1.15,2013-05-12 17:26:00,
2013-05-12 12:27:00,74.4,51.1,30.10,ESE,119,6.0,10.0,44,0.00,,,0.00,Wunderground v.1.15,2013-05-12 17:27:00,
2013-05-12 12:28:00,74.6,51.2,30.10,ESE,113,6.0,10.0,44,0.00,,,0.00,Wunderground v.1.15,2013-05-12 17:28:00,
2013-05-12 12:31:00,74.6,49.3,30.10,East,79,7.0,14.0,41,0.00,,,0.00,Wunderground v.1.15,2013-05-12 17:31:00,
2013-05-12 12:32:00,74.7,50.7,30.09,East,99,8.0,14.0,43,0.00,,,0.00,Wunderground v.1.15,2013-05-12 17:32:00,
2013-05-12 12:33:00,74.6,50.0,30.09,ESE,103,7.0,14.0,42,0.00,,,0.00,Wunderground v.1.15,2013-05-12 17:33:00,
2013-05-12 12:37:00,74.7,49.4,30.09,ENE,75,7.0,14.0,41,0.00,,,0.00,Wunderground v.1.15,2013-05-12 17:37:00,
2013-05-12 12:38:00,74.7,50.7,30.09,ESE,114,7.0,14.0,43,0.00,,,0.00,Wunderground v.1.15,2013-05-12 17:38:00,
2013-05-12 12:40:00,74.9,50.3,30.09,ENE,58,6.0,6.0,42,0.00,,,0.00,Wunderground v.1.15,2013-05-12 17:40:00,
2013-05-12 12:45:00,74.9,49.6,30.09,East,89,6.0,7.0,41,0.00,,,0.00,Wunderground v.1.15,2013-05-12 17:45:00,
2013-05-12 12:47:00,74.9,49.6,30.10,ESE,104,6.0,7.0,41,0.00,,,0.00,Wunderground v.1.15,2013-05-12 17:47:00,
2013-05-12 12:49:00,74.9,49.6,30.10,ENE,58,6.0,7.0,41,0.00,,,0.00,Wunderground v.1.15,2013-05-12 17:49:00,
2013-05-12 12:50:00,75.1,49.8,30.10,East,90,6.0,7.0,41,0.00,,,0.00,Wunderground v.1.15,2013-05-12 17:50:00,
2013-05-12 12:51:00,75.1,49.8,30.10,ENE,68,6.0,7.0,41,0.00,,,0.00,Wunderground v.1.15,2013-05-12 17:51:00,
2013-05-12 12:57:00,75.8,50.4,30.10,East,99,5.0,10.0,41,0.00,,,0.00,Wunderground v.1.15,2013-05-12 17:57:00,
2013-05-12 12:59:00,75.8,50.4,30.10,NNE,32,5.0,10.0,41,0.00,,,0.00,Wunderground v.1.15,2013-05-12 17:59:00,
2013-05-12 13:00:00,76.0,49.2,30.10,NE,44,5.0,5.0,39,0.00,,,0.00,Wunderground v.1.15,2013-05-12 18:00:00,
2013-05-12 13:02:00,76.0,49.2,30.09,ESE,107,5.0,7.0,39,0.00,,,0.00,Wunderground v.1.15,2013-05-12 18:02:00,
2013-05-12 13:06:00,76.1,49.3,30.09,East,92,5.0,12.0,39,0.00,,,0.00,Wunderground v.1.15,2013-05-12 18:06:00,
2013-05-12 13:07:00,76.0,49.2,30.09,SSE,164,6.0,12.0,39,0.00,,,0.00,Wunderground v.1.15,2013-05-12 18:07:00,
2013-05-12 13:11:00,76.0,49.9,30.09,ESE,104,7.0,7.0,40,0.00,,,0.00,Wunderground v.1.15,2013-05-12 18:11:00,
2013-05-12 13:12:00,76.1,50.0,30.09,East,88,7.0,7.0,40,0.00,,,0.00,Wunderground v.1.15,2013-05-12 18:12:00,
2013-05-12 13:14:00,76.0,48.6,30.09,SE,124,7.0,10.0,38,0.00,,,0.00,Wunderground v.1.15,2013-05-12 18:14:00,
2013-05-12 13:16:00,76.0,49.9,30.09,East,80,7.0,10.0,40,0.00,,,0.00,Wunderground v.1.15,2013-05-12 18:16:00,
2013-05-12 13:17:00,76.3,50.2,30.09,ENE,78,7.0,10.0,40,0.00,,,0.00,Wunderground v.1.15,2013-05-12 18:17:00,
2013-05-12 13:20:00,76.5,50.4,30.09,East,95,6.0,10.0,40,0.00,,,0.00,Wunderground v.1.15,2013-05-12 18:20:00,
2013-05-12 13:22:00,76.5,49.0,30.09,SE,133,6.0,11.0,38,0.00,,,0.00,Wunderground v.1.15,2013-05-12 18:22:00,
2013-05-12 13:24:00,76.3,49.5,30.09,SE,124,6.0,11.0,39,0.00,,,0.00,Wunderground v.1.15,2013-05-12 18:24:00,
2013-05-12 13:25:00,76.5,50.4,30.09,ESE,113,6.0,11.0,40,0.00,,,0.00,Wunderground v.1.15,2013-05-12 18:25:00,
2013-05-12 13:28:00,77.0,49.4,30.09,East,88,5.0,13.0,38,0.00,,,0.00,Wunderground v.1.15,2013-05-12 18:28:00,
2013-05-12 13:30:00,77.2,48.2,30.09,ESE,119,6.0,13.0,36,0.00,,,0.00,Wunderground v.1.15,2013-05-12 18:30:00,
2013-05-12 13:31:00,77.2,48.2,30.09,NE,44,6.0,6.0,36,0.00,,,0.00,Wunderground v.1.15,2013-05-12 18:31:00,
2013-05-12 13:32:00,77.2,48.9,30.09,East,86,6.0,6.0,37,0.00,,,0.00,Wunderground v.1.15,2013-05-12 18:32:00,
2013-05-12 13:36:00,76.8,49.3,30.09,ESE,106,6.0,6.0,38,0.00,,,0.00,Wunderground v.1.15,2013-05-12 18:36:00,
2013-05-12 13:37:00,76.8,49.3,30.09,ESE,113,6.0,10.0,38,0.00,,,0.00,Wunderground v.1.15,2013-05-12 18:37:00,
2013-05-12 13:40:00,76.5,48.3,30.09,SE,128,7.0,10.0,37,0.00,,,0.00,Wunderground v.1.15,2013-05-12 18:40:00,
2013-05-12 13:42:00,76.3,48.1,30.09,ESE,107,6.0,8.0,37,0.00,,,0.00,Wunderground v.1.15,2013-05-12 18:42:00,
2013-05-12 13:47:00,76.0,48.6,30.08,ESE,109,6.0,8.0,38,0.00,,,0.00,Wunderground v.1.15,2013-05-12 18:47:00,
2013-05-12 13:48:00,75.8,49.1,30.08,ESE,114,6.0,8.0,39,0.00,,,0.00,Wunderground v.1.15,2013-05-12 18:48:00,
2013-05-12 13:50:00,75.8,48.4,30.08,ESE,119,5.0,8.0,38,0.00,,,0.00,Wunderground v.1.15,2013-05-12 18:50:00,
2013-05-12 13:51:00,75.8,48.4,30.08,ESE,119,5.0,5.0,38,0.00,,,0.00,Wunderground v.1.15,2013-05-12 18:51:00,
2013-05-12 13:53:00,75.8,49.1,30.08,East,90,4.0,5.0,39,0.00,,,0.00,Wunderground v.1.15,2013-05-12 18:53:00,
2013-05-12 13:56:00,76.0,49.2,30.08,SE,131,4.0,10.0,39,0.00,,,0.00,Wunderground v.1.15,2013-05-12 18:56:00,
2013-05-12 13:57:00,76.0,47.8,30.08,East,100,4.0,10.0,37,0.00,,,0.00,Wunderground v.1.15,2013-05-12 18:57:00,
2013-05-12 14:00:00,76.3,50.2,30.08,East,96,5.0,5.0,40,0.00,,,0.00,Wunderground v.1.15,2013-05-12 19:00:00,
2013-05-12 14:01:00,76.5,50.4,30.08,ENE,68,5.0,7.0,40,0.00,,,0.00,Wunderground v.1.15,2013-05-12 19:01:00,
2013-05-12 14:04:00,76.8,47.8,30.08,NNE,30,6.0,7.0,36,0.00,,,0.00,Wunderground v.1.15,2013-05-12 19:04:00,
2013-05-12 14:06:00,76.8,48.6,30.08,East,90,7.0,8.0,37,0.00,,,0.00,Wunderground v.1.15,2013-05-12 19:06:00,
2013-05-12 14:07:00,76.8,47.8,30.08,East,100,7.0,8.0,36,0.00,,,0.00,Wunderground v.1.15,2013-05-12 19:07:00,
2013-05-12 14:09:00,76.8,49.3,30.08,SE,131,7.0,10.0,38,0.00,,,0.00,Wunderground v.1.15,2013-05-12 19:09:00,
2013-05-12 14:10:00,77.0,48.7,30.08,ESE,112,7.0,7.0,37,0.00,,,0.00,Wunderground v.1.15,2013-05-12 19:10:00,
2013-05-12 14:11:00,77.0,48.7,30.08,ESE,113,7.0,7.0,37,0.00,,,0.00,Wunderground v.1.15,2013-05-12 19:11:00,
2013-05-12 14:14:00,77.6,49.3,30.08,ESE,107,7.0,8.0,37,0.00,,,0.00,Wunderground v.1.15,2013-05-12 19:14:00,
2013-05-12 14:15:00,77.6,48.5,30.08,East,79,7.0,8.0,36,0.00,,,0.00,Wunderground v.1.15,2013-05-12 19:15:00,
2013-05-12 14:16:00,77.6,50.0,30.08,SE,126,6.0,8.0,38,0.00,,,0.00,Wunderground v.1.15,2013-05-12 19:16:00,
2013-05-12 14:17:00,77.7,50.1,30.08,East,96,6.0,8.0,38,0.00,,,0.00,Wunderground v.1.15,2013-05-12 19:17:00,
2013-05-12 14:20:00,78.1,49.7,30.08,East,92,5.0,7.0,37,0.00,,,0.00,Wunderground v.1.15,2013-05-12 19:20:00,
2013-05-12 14:21:00,78.1,49.7,30.08,SE,134,5.0,7.0,37,0.00,,,0.00,Wunderground v.1.15,2013-05-12 19:21:00,
2013-05-12 14:22:00,78.3,49.9,30.08,SE,133,5.0,7.0,37,0.00,,,0.00,Wunderground v.1.15,2013-05-12 19:22:00,
2013-05-12 14:26:00,78.5,49.3,30.08,East,86,4.0,7.0,36,0.00,,,0.00,Wunderground v.1.15,2013-05-12 19:26:00,
2013-05-12 14:27:00,78.5,49.3,30.08,East,93,4.0,7.0,36,0.00,,,0.00,Wunderground v.1.15,2013-05-12 19:27:00,
2013-05-12 14:29:00,78.3,49.1,30.08,ESE,113,4.0,7.0,36,0.00,,,0.00,Wunderground v.1.15,2013-05-12 19:29:00,
2013-05-12 14:30:00,78.1,49.0,30.08,ESE,112,5.0,5.0,36,0.00,,,0.00,Wunderground v.1.15,2013-05-12 19:30:00,
2013-05-12 14:33:00,77.9,48.8,30.08,East,89,6.0,10.0,36,0.00,,,0.00,Wunderground v.1.15,2013-05-12 19:33:00,
2013-05-12 14:35:00,78.1,50.4,30.08,ENE,75,6.0,10.0,38,0.00,,,0.00,Wunderground v.1.15,2013-05-12 19:35:00,
2013-05-12 14:36:00,78.1,49.7,30.08,SE,134,6.0,10.0,37,0.00,,,0.00,Wunderground v.1.15,2013-05-12 19:36:00,
2013-05-12 14:40:00,77.9,49.5,30.08,ESE,110,6.0,10.0,37,0.00,,,0.00,Wunderground v.1.15,2013-05-12 19:40:00,
2013-05-12 14:41:00,78.1,49.7,30.08,ESE,107,6.0,7.0,37,0.00,,,0.00,Wunderground v.1.15,2013-05-12 19:41:00,
2013-05-12 14:42:00,77.9,49.5,30.08,ESE,119,5.0,7.0,37,0.00,,,0.00,Wunderground v.1.15,2013-05-12 19:42:00,
2013-05-12 14:46:00,78.3,49.9,30.08,East,93,4.0,7.0,37,0.00,,,0.00,Wunderground v.1.15,2013-05-12 19:46:00,
2013-05-12 14:47:00,78.1,49.0,30.08,NE,52,4.0,7.0,36,0.00,,,0.00,Wunderground v.1.15,2013-05-12 19:47:00,
2013-05-12 14:50:00,78.1,49.0,30.08,SSE,158,5.0,7.0,36,0.00,,,0.00,Wunderground v.1.15,2013-05-12 19:50:00,
2013-05-12 14:51:00,78.1,49.0,30.08,SSE,155,5.0,5.0,36,0.00,,,0.00,Wunderground v.1.15,2013-05-12 19:51:00,
2013-05-12 14:52:00,78.3,49.9,30.08,East,93,5.0,6.0,37,0.00,,,0.00,Wunderground v.1.15,2013-05-12 19:52:00,
2013-05-12 14:54:00,78.5,50.1,30.08,NE,48,4.0,6.0,37,0.00,,,0.00,Wunderground v.1.15,2013-05-12 19:54:00,
2013-05-12 14:56:00,78.6,49.4,30.08,SE,134,5.0,9.0,36,0.00,,,0.00,Wunderground v.1.15,2013-05-12 19:56:00,
2013-05-12 14:57:00,78.8,49.6,30.08,ESE,112,5.0,9.0,36,0.00,,,0.00,Wunderground v.1.15,2013-05-12 19:57:00,
2013-05-12 15:00:00,78.5,48.6,30.08,SE,137,6.0,7.0,35,0.00,,,0.00,Wunderground v.1.15,2013-05-12 20:00:00,
2013-05-12 15:01:00,78.5,48.6,30.08,ESE,104,6.0,8.0,35,0.00,,,0.00,Wunderground v.1.15,2013-05-12 20:01:00,
2013-05-12 15:06:00,77.7,48.6,30.07,ESE,116,8.0,13.0,36,0.00,,,0.00,Wunderground v.1.15,2013-05-12 20:06:00,
2013-05-12 15:07:00,77.7,48.6,30.07,SE,124,8.0,13.0,36,0.00,,,0.00,Wunderground v.1.15,2013-05-12 20:07:00,
2013-05-12 15:09:00,77.6,49.3,30.07,SE,131,8.0,13.0,37,0.00,,,0.00,Wunderground v.1.15,2013-05-12 20:09:00,
2013-05-12 15:14:00,77.7,48.6,30.07,ESE,110,7.0,11.0,36,0.00,,,0.00,Wunderground v.1.15,2013-05-12 20:14:00,
2013-05-12 15:15:00,77.7,49.3,30.07,ESE,112,7.0,11.0,37,0.00,,,0.00,Wunderground v.1.15,2013-05-12 20:15:00,
2013-05-12 15:16:00,77.7,49.3,30.07,SSE,165,6.0,11.0,37,0.00,,,0.00,Wunderground v.1.15,2013-05-12 20:16:00,
2013-05-12 15:17:00,77.9,49.5,30.07,ESE,110,6.0,12.0,37,0.00,,,0.00,Wunderground v.1.15,2013-05-12 20:17:00,
2013-05-12 15:21:00,77.7,49.3,30.07,ESE,119,7.0,8.0,37,0.00,,,0.00,Wunderground v.1.15,2013-05-12 20:21:00,
2013-05-12 15:22:00,77.6,49.3,30.07,NE,54,7.0,8.0,37,0.00,,,0.00,Wunderground v.1.15,2013-05-12 20:22:00,
2013-05-12 15:25:00,77.6,49.3,30.07,ENE,75,6.0,8.0,37,0.00,,,0.00,Wunderground v.1.15,2013-05-12 20:25:00,
2013-05-12 15:26:00,77.6,50.0,30.07,NE,52,6.0,8.0,38,0.00,,,0.00,Wunderground v.1.15,2013-05-12 20:26:00,
2013-05-12 15:27:00,77.7,50.1,30.07,East,86,5.0,8.0,38,0.00,,,0.00,Wunderground v.1.15,2013-05-12 20:27:00,
2013-05-12 15:28:00,77.6,48.5,30.07,SE,136,4.0,8.0,36,0.00,,,0.00,Wunderground v.1.15,2013-05-12 20:28:00,
2013-05-12 15:33:00,77.2,48.2,30.07,ESE,114,5.0,8.0,36,0.00,,,0.00,Wunderground v.1.15,2013-05-12 20:33:00,
2013-05-12 15:34:00,77.4,49.1,30.07,ESE,120,5.0,8.0,37,0.00,,,0.00,Wunderground v.1.15,2013-05-12 20:34:00,
2013-05-12 15:36:00,77.4,49.1,30.07,East,89,5.0,8.0,37,0.00,,,0.00,Wunderground v.1.15,2013-05-12 20:36:00,
2013-05-12 15:37:00,77.4,49.1,30.07,East,99,6.0,8.0,37,0.00,,,0.00,Wunderground v.1.15,2013-05-12 20:37:00,
2013-05-12 15:38:00,77.4,48.3,30.07,East,95,6.0,8.0,36,0.00,,,0.00,Wunderground v.1.15,2013-05-12 20:38:00,
2013-05-12 15:41:00,77.4,49.8,30.07,East,93,6.0,6.0,38,0.00,,,0.00,Wunderground v.1.15,2013-05-12 20:41:00,
2013-05-12 15:42:00,77.4,49.8,30.07,East,88,6.0,6.0,38,0.00,,,0.00,Wunderground v.1.15,2013-05-12 20:42:00,
2013-05-12 15:44:00,77.6,50.7,30.07,NE,47,5.0,6.0,39,0.00,,,0.00,Wunderground v.1.15,2013-05-12 20:44:00,
2013-05-12 15:45:00,77.7,50.1,30.07,ESE,103,4.0,6.0,38,0.00,,,0.00,Wunderground v.1.15,2013-05-12 20:45:00,
2013-05-12 15:46:00,77.6,49.3,30.07,ESE,123,4.0,8.0,37,0.00,,,0.00,Wunderground v.1.15,2013-05-12 20:46:00,
2013-05-12 15:50:00,77.4,49.8,30.05,ESE,102,5.0,5.0,38,0.00,,,0.00,Wunderground v.1.15,2013-05-12 20:50:00,
2013-05-12 15:51:00,77.4,49.8,30.05,ESE,102,5.0,5.0,38,0.00,,,0.00,Wunderground v.1.15,2013-05-12 20:51:00,
2013-05-12 15:52:00,77.6,50.7,30.05,SE,144,5.0,9.0,39,0.00,,,0.00,Wunderground v.1.15,2013-05-12 20:52:00,
2013-05-12 15:55:00,77.6,49.3,30.05,ESE,114,6.0,12.0,37,0.00,,,0.00,Wunderground v.1.15,2013-05-12 20:55:00,
2013-05-12 15:57:00,77.6,49.3,30.05,East,95,6.0,12.0,37,0.00,,,0.00,Wunderground v.1.15,2013-05-12 20:57:00,
2013-05-12 16:02:00,77.6,50.0,30.04,ENE,65,6.0,8.0,38,0.00,,,0.00,Wunderground v.1.15,2013-05-12 21:02:00,
2013-05-12 16:05:00,77.6,50.0,30.04,NE,45,5.0,10.0,38,0.00,,,0.00,Wunderground v.1.15,2013-05-12 21:05:00,
2013-05-12 16:08:00,77.6,49.3,30.04,NE,38,5.0,10.0,37,0.00,,,0.00,Wunderground v.1.15,2013-05-12 21:08:00,
2013-05-12 16:09:00,77.4,49.8,30.04,NE,38,5.0,10.0,38,0.00,,,0.00,Wunderground v.1.15,2013-05-12 21:09:00,
2013-05-12 16:13:00,77.4,49.8,30.04,SE,138,4.0,8.0,38,0.00,,,0.00,Wunderground v.1.15,2013-05-12 21:13:00,
2013-05-12 16:16:00,77.6,50.7,30.05,NE,48,4.0,8.0,39,0.00,,,0.00,Wunderground v.1.15,2013-05-12 21:16:00,
2013-05-12 16:18:00,77.6,50.0,30.05,SE,140,4.0,8.0,38,0.00,,,0.00,Wunderground v.1.15,2013-05-12 21:18:00,
2013-05-12 16:19:00,77.7,50.1,30.05,ENE,68,4.0,8.0,38,0.00,,,0.00,Wunderground v.1.15,2013-05-12 21:19:00,
2013-05-12 16:21:00,77.7,49.3,30.05,SSE,160,4.0,11.0,37,0.00,,,0.00,Wunderground v.1.15,2013-05-12 21:21:00,
2013-05-12 16:23:00,77.7,48.6,30.05,ESE,110,4.0,11.0,36,0.00,,,0.00,Wunderground v.1.15,2013-05-12 21:23:00,
2013-05-12 16:24:00,77.9,48.8,30.05,ESE,116,4.0,11.0,36,0.00,,,0.00,Wunderground v.1.15,2013-05-12 21:24:00,
2013-05-12 16:29:00,78.1,49.0,30.05,ESE,106,6.0,12.0,36,0.00,,,0.00,Wunderground v.1.15,2013-05-12 21:29:00,
2013-05-12 16:30:00,78.1,48.2,30.05,SE,144,6.0,9.0,35,0.00,,,0.00,Wunderground v.1.15,2013-05-12 21:30:00,
2013-05-12 16:31:00,78.1,48.2,30.05,East,99,6.0,9.0,35,0.00,,,0.00,Wunderground v.1.15,2013-05-12 21:31:00,
2013-05-12 16:34:00,78.1,49.0,30.04,ESE,102,7.0,9.0,36,0.00,,,0.00,Wunderground v.1.15,2013-05-12 21:34:00,
2013-05-12 16:35:00,78.1,48.2,30.04,ESE,116,6.0,9.0,35,0.00,,,0.00,Wunderground v.1.15,2013-05-12 21:35:00,
2013-05-12 16:36:00,78.1,48.2,30.04,ESE,109,7.0,9.0,35,0.00,,,0.00,Wunderground v.1.15,2013-05-12 21:36:00,
2013-05-12 16:40:00,78.1,48.2,30.04,East,89,7.0,7.0,35,0.00,,,0.00,Wunderground v.1.15,2013-05-12 21:40:00,
2013-05-12 16:43:00,78.1,48.2,30.04,ESE,110,6.0,7.0,35,0.00,,,0.00,Wunderground v.1.15,2013-05-12 21:43:00,
2013-05-12 16:46:00,78.3,48.4,30.04,SSE,147,6.0,7.0,35,0.00,,,0.00,Wunderground v.1.15,2013-05-12 21:46:00,
2013-05-12 16:47:00,78.5,48.6,30.04,ESE,109,5.0,7.0,35,0.00,,,0.00,Wunderground v.1.15,2013-05-12 21:47:00,
2013-05-12 16:50:00,78.3,48.4,30.04,East,99,5.0,5.0,35,0.00,,,0.00,Wunderground v.1.15,2013-05-12 21:50:00,
2013-05-12 16:52:00,78.5,49.3,30.04,ESE,117,5.0,11.0,36,0.00,,,0.00,Wunderground v.1.15,2013-05-12 21:52:00,
2013-05-12 16:53:00,78.3,48.4,30.04,East,100,5.0,11.0,35,0.00,,,0.00,Wunderground v.1.15,2013-05-12 21:53:00,
2013-05-12 16:56:00,78.1,48.2,30.04,SE,141,5.0,11.0,35,0.00,,,0.00,Wunderground v.1.15,2013-05-12 21:56:00,
2013-05-12 16:57:00,77.9,48.0,30.04,ESE,102,6.0,11.0,35,0.00,,,0.00,Wunderground v.1.15,2013-05-12 21:57:00,
2013-05-12 16:58:00,77.7,47.1,30.04,ESE,102,6.0,11.0,34,0.00,,,0.00,Wunderground v.1.15,2013-05-12 21:58:00,
2013-05-12 17:00:00,77.6,48.5,30.04,ESE,116,6.0,12.0,36,0.00,,,0.00,Wunderground v.1.15,2013-05-12 22:00:00,
2013-05-12 17:03:00,77.4,47.6,30.03,ESE,104,7.0,12.0,35,0.00,,,0.00,Wunderground v.1.15,2013-05-12 22:03:00,
2013-05-12 17:05:00,77.4,47.6,30.03,East,82,7.0,12.0,35,0.00,,,0.00,Wunderground v.1.15,2013-05-12 22:05:00,
2013-05-12 17:06:00,77.4,47.6,30.03,SE,141,6.0,12.0,35,0.00,,,0.00,Wunderground v.1.15,2013-05-12 22:06:00,
2013-05-12 17:09:00,77.4,47.6,30.03,SE,126,6.0,12.0,35,0.00,,,0.00,Wunderground v.1.15,2013-05-12 22:09:00,
2013-05-12 17:10:00,77.2,48.2,30.03,East,89,6.0,6.0,36,0.00,,,0.00,Wunderground v.1.15,2013-05-12 22:10:00,
2013-05-12 17:11:00,77.2,48.2,30.03,East,97,6.0,6.0,36,0.00,,,0.00,Wunderground v.1.15,2013-05-12 22:11:00,
2013-05-12 17:12:00,77.4,48.3,30.03,SE,140,6.0,6.0,36,0.00,,,0.00,Wunderground v.1.15,2013-05-12 22:12:00,
2013-05-12 17:14:00,77.4,48.3,30.03,East,83,5.0,7.0,36,0.00,,,0.00,Wunderground v.1.15,2013-05-12 22:14:00,
2013-05-12 17:16:00,77.4,48.3,30.03,East,82,5.0,7.0,36,0.00,,,0.00,Wunderground v.1.15,2013-05-12 22:16:00,
2013-05-12 17:21:00,77.2,47.4,30.03,East,99,5.0,6.0,35,0.00,,,0.00,Wunderground v.1.15,2013-05-12 22:21:00,
2013-05-12 17:22:00,77.2,48.9,30.03,East,96,6.0,8.0,37,0.00,,,0.00,Wunderground v.1.15,2013-05-12 22:22:00,
2013-05-12 17:28:00,77.2,48.9,30.03,SE,126,6.0,10.0,37,0.00,,,0.00,Wunderground v.1.15,2013-05-12 22:28:00,
2013-05-12 17:29:00,77.4,49.1,30.03,East,99,6.0,10.0,37,0.00,,,0.00,Wunderground v.1.15,2013-05-12 22:29:00,
2013-05-12 17:30:00,77.2,49.6,30.03,East,96,6.0,6.0,38,0.00,,,0.00,Wunderground v.1.15,2013-05-12 22:30:00,
2013-05-12 17:34:00,77.0,48.7,30.03,ESE,120,6.0,7.0,37,0.00,,,0.00,Wunderground v.1.15,2013-05-12 22:34:00,
2013-05-12 17:35:00,77.0,49.4,30.03,East,97,6.0,7.0,38,0.00,,,0.00,Wunderground v.1.15,2013-05-12 22:35:00,
2013-05-12 17:36:00,77.0,49.4,30.03,East,97,5.0,7.0,38,0.00,,,0.00,Wunderground v.1.15,2013-05-12 22:36:00,
2013-05-12 17:38:00,77.0,48.7,30.03,SE,124,6.0,9.0,37,0.00,,,0.00,Wunderground v.1.15,2013-05-12 22:38:00,
2013-05-12 17:39:00,76.8,48.6,30.03,ESE,103,6.0,9.0,37,0.00,,,0.00,Wunderground v.1.15,2013-05-12 22:39:00,
2013-05-12 17:42:00,76.8,48.6,30.03,East,97,6.0,6.0,37,0.00,,,0.00,Wunderground v.1.15,2013-05-12 22:42:00,
2013-05-12 17:43:00,76.8,48.6,30.03,ENE,68,5.0,9.0,37,0.00,,,0.00,Wunderground v.1.15,2013-05-12 22:43:00,
2013-05-12 17:45:00,76.7,48.5,30.03,SE,134,6.0,9.0,37,0.00,,,0.00,Wunderground v.1.15,2013-05-12 22:45:00,
2013-05-12 17:47:00,76.7,49.2,30.03,SE,124,6.0,9.0,38,0.00,,,0.00,Wunderground v.1.15,2013-05-12 22:47:00,
2013-05-12 17:48:00,76.5,48.3,30.03,ESE,114,6.0,9.0,37,0.00,,,0.00,Wunderground v.1.15,2013-05-12 22:48:00,
2013-05-12 17:50:00,76.5,49.0,30.03,SE,131,5.0,5.0,38,0.00,,,0.00,Wunderground v.1.15,2013-05-12 22:50:00,
2013-05-12 17:51:00,76.5,49.0,30.03,SE,131,5.0,5.0,38,0.00,,,0.00,Wunderground v.1.15,2013-05-12 22:51:00,
2013-05-12 17:52:00,76.5,49.0,30.03,ESE,114,5.0,5.0,38,0.00,,,0.00,Wunderground v.1.15,2013-05-12 22:52:00,
2013-05-12 17:55:00,76.5,49.0,30.03,ESE,110,4.0,5.0,38,0.00,,,0.00,Wunderground v.1.15,2013-05-12 22:55:00,
2013-05-12 17:56:00,76.5,49.0,30.03,ESE,110,4.0,5.0,38,0.00,,,0.00,Wunderground v.1.15,2013-05-12 22:56:00,
2013-05-12 17:57:00,76.5,49.0,30.03,ESE,107,3.0,5.0,38,0.00,,,0.00,Wunderground v.1.15,2013-05-12 22:57:00,
2013-05-12 18:02:00,76.5,49.7,30.02,SE,127,2.0,5.0,39,0.00,,,0.00,Wunderground v.1.15,2013-05-12 23:02:00,
2013-05-12 18:03:00,76.5,49.0,30.02,SE,133,3.0,5.0,38,0.00,,,0.00,Wunderground v.1.15,2013-05-12 23:03:00,
2013-05-12 18:07:00,76.5,49.0,30.02,ENE,73,3.0,5.0,38,0.00,,,0.00,Wunderground v.1.15,2013-05-12 23:07:00,
2013-05-12 18:09:00,76.5,49.7,30.02,East,80,3.0,5.0,39,0.00,,,0.00,Wunderground v.1.15,2013-05-12 23:09:00,
2013-05-12 18:10:00,76.5,49.7,30.02,East,92,3.0,3.0,39,0.00,,,0.00,Wunderground v.1.15,2013-05-12 23:10:00,
2013-05-12 18:12:00,76.5,49.7,30.02,East,92,3.0,3.0,39,0.00,,,0.00,Wunderground v.1.15,2013-05-12 23:12:00,
2013-05-12 18:13:00,76.5,50.4,30.02,ENE,73,3.0,3.0,40,0.00,,,0.00,Wunderground v.1.15,2013-05-12 23:13:00,
2013-05-12 18:15:00,76.5,49.7,30.02,East,95,3.0,5.0,39,0.00,,,0.00,Wunderground v.1.15,2013-05-12 23:15:00,
2013-05-12 18:16:00,76.5,50.4,30.02,East,95,3.0,5.0,40,0.00,,,0.00,Wunderground v.1.15,2013-05-12 23:16:00,
2013-05-12 18:18:00,76.5,49.7,30.02,East,92,2.0,5.0,39,0.00,,,0.00,Wunderground v.1.15,2013-05-12 23:18:00,
2013-05-12 18:19:00,76.5,49.7,30.02,ESE,112,2.0,5.0,39,0.00,,,0.00,Wunderground v.1.15,2013-05-12 23:19:00,
2013-05-12 18:21:00,76.3,49.5,30.02,SE,138,3.0,3.0,39,0.00,,,0.00,Wunderground v.1.15,2013-05-12 23:21:00,
2013-05-12 18:23:00,76.5,50.4,30.02,ESE,119,3.0,10.0,40,0.00,,,0.00,Wunderground v.1.15,2013-05-12 23:23:00,
2013-05-12 18:25:00,76.5,49.7,30.02,East,86,3.0,10.0,39,0.00,,,0.00,Wunderground v.1.15,2013-05-12 23:25:00,
2013-05-12 18:27:00,76.5,49.7,30.02,ESE,123,4.0,10.0,39,0.00,,,0.00,Wunderground v.1.15,2013-05-12 23:27:00,
2013-05-12 18:32:00,76.7,49.9,30.01,ESE,120,3.0,3.0,39,0.00,,,0.00,Wunderground v.1.15,2013-05-12 23:32:00,
2013-05-12 18:33:00,76.7,49.9,30.01,ESE,117,3.0,3.0,39,0.00,,,0.00,Wunderground v.1.15,2013-05-12 23:33:00,
2013-05-12 18:36:00,76.7,49.9,30.01,East,99,2.0,3.0,39,0.00,,,0.00,Wunderground v.1.15,2013-05-12 23:36:00,
2013-05-12 18:38:00,76.7,49.9,30.01,East,97,1.0,3.0,39,0.00,,,0.00,Wunderground v.1.15,2013-05-12 23:38:00,
2013-05-12 18:39:00,76.7,49.2,30.01,ENE,76,1.0,3.0,38,0.00,,,0.00,Wunderground v.1.15,2013-05-12 23:39:00,
2013-05-12 18:42:00,76.7,49.2,30.01,East,83,1.0,2.0,38,0.00,,,0.00,Wunderground v.1.15,2013-05-12 23:42:00,
2013-05-12 18:44:00,76.5,48.3,30.01,East,88,2.0,8.0,37,0.00,,,0.00,Wunderground v.1.15,2013-05-12 23:44:00,
2013-05-12 18:45:00,76.5,49.0,30.01,East,90,2.0,8.0,38,0.00,,,0.00,Wunderground v.1.15,2013-05-12 23:45:00,
2013-05-12 18:47:00,76.3,48.8,30.01,ESE,102,2.0,8.0,38,0.00,,,0.00,Wunderground v.1.15,2013-05-12 23:47:00,
2013-05-12 18:49:00,76.3,49.5,30.01,ENE,78,2.0,8.0,39,0.00,,,0.00,Wunderground v.1.15,2013-05-12 23:49:00,
2013-05-12 18:50:00,76.3,48.8,30.01,East,95,3.0,5.0,38,0.00,,,0.00,Wunderground v.1.15,2013-05-12 23:50:00,
2013-05-12 18:55:00,76.1,49.3,30.01,ENE,76,3.0,9.0,39,0.00,,,0.00,Wunderground v.1.15,2013-05-12 23:55:00,
2013-05-12 18:56:00,76.1,48.6,30.01,East,92,3.0,9.0,38,0.00,,,0.00,Wunderground v.1.15,2013-05-12 23:56:00,
2013-05-12 18:57:00,76.1,49.3,30.01,ESE,117,3.0,9.0,39,0.00,,,0.00,Wunderground v.1.15,2013-05-12 23:57:00,
2013-05-12 18:58:00,76.1,49.3,30.01,ESE,117,3.0,9.0,39,0.00,,,0.00,Wunderground v.1.15,2013-05-12 23:58:00,
2013-05-12 19:00:00,76.1,49.3,30.01,ENE,64,4.0,4.0,39,0.00,,,0.00,Wunderground v.1.15,2013-05-13 00:00:00,
2013-05-12 19:03:00,76.0,49.9,30.01,East,79,4.0,6.0,40,0.00,,,0.00,Wunderground v.1.15,2013-05-13 00:03:00,
2013-05-12 19:05:00,76.0,49.2,30.01,East,85,4.0,7.0,39,0.00,,,0.00,Wunderground v.1.15,2013-05-13 00:05:00,
2013-05-12 19:06:00,76.0,49.2,30.01,East,93,4.0,7.0,39,0.00,,,0.00,Wunderground v.1.15,2013-05-13 00:06:00,
2013-05-12 19:08:00,76.0,49.2,30.01,East,96,4.0,7.0,39,0.00,,,0.00,Wunderground v.1.15,2013-05-13 00:08:00,
2013-05-12 19:11:00,76.0,49.9,30.01,East,96,4.0,4.0,40,0.00,,,0.00,Wunderground v.1.15,2013-05-13 00:11:00,
2013-05-12 19:14:00,76.0,49.9,30.01,ESE,114,3.0,6.0,40,0.00,,,0.00,Wunderground v.1.15,2013-05-13 00:14:00,
2013-05-12 19:15:00,76.0,49.9,30.01,ESE,119,3.0,7.0,40,0.00,,,0.00,Wunderground v.1.15,2013-05-13 00:15:00,
2013-05-12 19:16:00,75.8,49.8,30.01,East,90,3.0,7.0,40,0.00,,,0.00,Wunderground v.1.15,2013-05-13 00:16:00,
2013-05-12 19:17:00,75.8,49.8,30.02,ESE,116,3.0,7.0,40,0.00,,,0.00,Wunderground v.1.15,2013-05-13 00:17:00,
2013-05-12 19:19:00,75.8,50.4,30.02,East,95,2.0,7.0,41,0.00,,,0.00,Wunderground v.1.15,2013-05-13 00:19:00,
2013-05-12 19:20:00,75.8,49.8,30.02,ESE,109,3.0,6.0,40,0.00,,,0.00,Wunderground v.1.15,2013-05-13 00:20:00,
2013-05-12 19:22:00,75.8,50.4,30.02,East,82,3.0,6.0,41,0.00,,,0.00,Wunderground v.1.15,2013-05-13 00:22:00,
2013-05-12 19:24:00,75.8,50.4,30.02,East,86,3.0,6.0,41,0.00,,,0.00,Wunderground v.1.15,2013-05-13 00:24:00,
2013-05-12 19:25:00,75.8,50.4,30.02,East,83,3.0,6.0,41,0.00,,,0.00,Wunderground v.1.15,2013-05-13 00:25:00,
2013-05-12 19:29:00,75.6,50.2,30.02,East,95,3.0,6.0,41,0.00,,,0.00,Wunderground v.1.15,2013-05-13 00:29:00,
2013-05-12 19:32:00,75.6,50.2,30.02,ESE,102,2.0,6.0,41,0.00,,,0.00,Wunderground v.1.15,2013-05-13 00:32:00,
2013-05-12 19:33:00,75.4,50.7,30.02,ESE,102,2.0,6.0,42,0.00,,,0.00,Wunderground v.1.15,2013-05-13 00:33:00,
2013-05-12 19:34:00,75.4,50.7,30.02,ESE,102,2.0,6.0,42,0.00,,,0.00,Wunderground v.1.15,2013-05-13 00:34:00,
2013-05-12 19:35:00,75.4,50.7,30.02,ESE,102,2.0,6.0,42,0.00,,,0.00,Wunderground v.1.15,2013-05-13 00:35:00,
2013-05-12 19:37:00,75.4,50.7,30.02,ESE,112,2.0,6.0,42,0.00,,,0.00,Wunderground v.1.15,2013-05-13 00:37:00,
2013-05-12 19:38:00,75.4,51.3,30.02,ESE,112,2.0,6.0,43,0.00,,,0.00,Wunderground v.1.15,2013-05-13 00:38:00,
2013-05-12 19:40:00,75.3,51.3,30.02,East,89,2.0,6.0,43,0.00,,,0.00,Wunderground v.1.15,2013-05-13 00:40:00,
2013-05-12 19:42:00,75.3,51.3,30.02,ESE,106,2.0,3.0,43,0.00,,,0.00,Wunderground v.1.15,2013-05-13 00:42:00,
2013-05-12 19:43:00,75.3,51.3,30.02,SE,128,2.0,3.0,43,0.00,,,0.00,Wunderground v.1.15,2013-05-13 00:43:00,
2013-05-12 19:47:00,75.3,51.3,30.03,SE,126,2.0,5.0,43,0.00,,,0.00,Wunderground v.1.15,2013-05-13 00:47:00,
2013-05-12 19:48:00,75.3,51.3,30.03,SE,126,2.0,5.0,43,0.00,,,0.00,Wunderground v.1.15,2013-05-13 00:48:00,
2013-05-12 19:49:00,75.3,51.3,30.03,SE,124,2.0,5.0,43,0.00,,,0.00,Wunderground v.1.15,2013-05-13 00:49:00,
2013-05-12 19:53:00,75.3,51.3,30.03,ESE,123,1.0,2.0,43,0.00,,,0.00,Wunderground v.1.15,2013-05-13 00:53:00,
2013-05-12 19:54:00,75.3,51.3,30.03,ESE,123,1.0,2.0,43,0.00,,,0.00,Wunderground v.1.15,2013-05-13 00:54:00,
2013-05-12 19:55:00,75.3,51.3,30.03,East,90,1.0,2.0,43,0.00,,,0.00,Wunderground v.1.15,2013-05-13 00:55:00,
2013-05-12 19:58:00,75.1,51.7,30.03,ESE,106,1.0,2.0,44,0.00,,,0.00,Wunderground v.1.15,2013-05-13 00:58:00,
2013-05-12 19:59:00,75.1,51.7,30.03,East,100,1.0,5.0,44,0.00,,,0.00,Wunderground v.1.15,2013-05-13 00:59:00,
2013-05-12 20:04:00,74.7,51.3,30.04,ENE,72,1.0,5.0,44,0.00,,,0.00,Wunderground v.1.15,2013-05-13 01:04:00,
2013-05-12 20:05:00,74.7,51.3,30.04,ENE,72,1.0,5.0,44,0.00,,,0.00,Wunderground v.1.15,2013-05-13 01:05:00,
2013-05-12 20:07:00,74.6,51.9,30.04,ENE,72,1.0,5.0,45,0.00,,,0.00,Wunderground v.1.15,2013-05-13 01:07:00,
2013-05-12 20:09:00,74.6,51.9,30.04,ENE,73,1.0,5.0,45,0.00,,,0.00,Wunderground v.1.15,2013-05-13 01:09:00,
2013-05-12 20:10:00,74.4,51.7,30.04,ENE,72,0.0,0.0,45,0.00,,,0.00,Wunderground v.1.15,2013-05-13 01:10:00,
2013-05-12 20:16:00,74.0,51.3,30.04,ENE,73,0.0,1.0,45,0.00,,,0.00,Wunderground v.1.15,2013-05-13 01:16:00,
2013-05-12 20:17:00,74.0,51.3,30.05,ENE,73,0.0,1.0,45,0.00,,,0.00,Wunderground v.1.15,2013-05-13 01:17:00,
2013-05-12 20:18:00,73.9,51.2,30.05,ENE,73,0.0,1.0,45,0.00,,,0.00,Wunderground v.1.15,2013-05-13 01:18:00,
2013-05-12 20:19:00,73.9,51.2,30.05,ENE,73,0.0,2.0,45,0.00,,,0.00,Wunderground v.1.15,2013-05-13 01:19:00,
2013-05-12 20:23:00,73.7,51.0,30.05,ENE,73,0.0,0.0,45,0.00,,,0.00,Wunderground v.1.15,2013-05-13 01:23:00,
2013-05-12 20:25:00,73.5,50.9,30.05,ENE,73,0.0,0.0,45,0.00,,,0.00,Wunderground v.1.15,2013-05-13 01:25:00,
2013-05-12 20:28:00,73.3,50.7,30.05,ENE,73,0.0,0.0,45,0.00,,,0.00,Wunderground v.1.15,2013-05-13 01:28:00,
2013-05-12 20:32:00,73.3,50.7,30.05,ENE,73,0.0,0.0,45,0.00,,,0.00,Wunderground v.1.15,2013-05-13 01:32:00,
2013-05-12 20:33:00,73.2,50.6,30.05,ENE,73,0.0,0.0,45,0.00,,,0.00,Wunderground v.1.15,2013-05-13 01:33:00,
2013-05-12 20:34:00,73.2,50.6,30.05,ENE,73,0.0,0.0,45,0.00,,,0.00,Wunderground v.1.15,2013-05-13 01:34:00,
2013-05-12 20:37:00,73.0,50.4,30.05,ENE,72,0.0,0.0,45,0.00,,,0.00,Wunderground v.1.15,2013-05-13 01:37:00,
2013-05-12 20:39:00,73.0,50.4,30.05,ENE,72,0.0,0.0,45,0.00,,,0.00,Wunderground v.1.15,2013-05-13 01:39:00,
2013-05-12 20:40:00,73.0,50.4,30.05,ENE,72,0.0,0.0,45,0.00,,,0.00,Wunderground v.1.15,2013-05-13 01:40:00,
2013-05-12 20:42:00,72.8,50.2,30.05,ENE,72,0.0,0.0,45,0.00,,,0.00,Wunderground v.1.15,2013-05-13 01:42:00,
2013-05-12 20:44:00,72.8,50.2,30.05,ENE,72,0.0,0.0,45,0.00,,,0.00,Wunderground v.1.15,2013-05-13 01:44:00,
2013-05-12 20:45:00,72.7,50.1,30.05,ENE,72,0.0,0.0,45,0.00,,,0.00,Wunderground v.1.15,2013-05-13 01:45:00,
2013-05-12 20:46:00,72.7,50.7,30.05,ENE,72,0.0,0.0,46,0.00,,,0.00,Wunderground v.1.15,2013-05-13 01:46:00,
2013-05-12 20:47:00,72.7,50.7,30.06,ENE,72,0.0,0.0,46,0.00,,,0.00,Wunderground v.1.15,2013-05-13 01:47:00,
2013-05-12 20:49:00,72.5,50.5,30.06,ENE,72,0.0,0.0,46,0.00,,,0.00,Wunderground v.1.15,2013-05-13 01:49:00,
2013-05-12 20:50:00,72.5,50.5,30.06,ENE,72,0.0,0.0,46,0.00,,,0.00,Wunderground v.1.15,2013-05-13 01:50:00,
2013-05-12 20:53:00,72.3,50.9,30.06,ENE,72,0.0,0.0,47,0.00,,,0.00,Wunderground v.1.15,2013-05-13 01:53:00,
2013-05-12 20:54:00,72.3,50.9,30.06,ENE,72,0.0,0.0,47,0.00,,,0.00,Wunderground v.1.15,2013-05-13 01:54:00,
2013-05-12 20:56:00,72.1,50.8,30.06,ENE,72,0.0,0.0,47,0.00,,,0.00,Wunderground v.1.15,2013-05-13 01:56:00,
2013-05-12 20:58:00,72.1,50.8,30.06,ENE,72,0.0,0.0,47,0.00,,,0.00,Wunderground v.1.15,2013-05-13 01:58:00,
2013-05-12 21:01:00,71.8,49.9,30.06,ENE,72,0.0,0.0,46,0.00,,,0.00,Wunderground v.1.15,2013-05-13 02:01:00,
2013-05-12 21:04:00,71.8,49.9,30.07,ENE,72,0.0,0.0,46,0.00,,,0.00,Wunderground v.1.15,2013-05-13 02:04:00,
2013-05-12 21:05:00,71.6,50.3,30.07,ENE,72,0.0,0.0,47,0.00,,,0.00,Wunderground v.1.15,2013-05-13 02:05:00,
2013-05-12 21:06:00,71.6,50.3,30.07,ENE,72,0.0,0.0,47,0.00,,,0.00,Wunderground v.1.15,2013-05-13 02:06:00,
2013-05-12 21:10:00,71.3,49.4,30.07,ENE,72,0.0,0.0,46,0.00,,,0.00,Wunderground v.1.15,2013-05-13 02:10:00,
2013-05-12 21:11:00,71.3,49.4,30.07,ENE,72,0.0,0.0,46,0.00,,,0.00,Wunderground v.1.15,2013-05-13 02:11:00,
2013-05-12 21:12:00,71.1,48.7,30.07,ENE,72,0.0,0.0,45,0.00,,,0.00,Wunderground v.1.15,2013-05-13 02:12:00,
2013-05-12 21:14:00,71.1,49.3,30.07,ENE,72,0.0,0.0,46,0.00,,,0.00,Wunderground v.1.15,2013-05-13 02:14:00,
2013-05-12 21:15:00,70.9,49.1,30.07,ENE,72,0.0,0.0,46,0.00,,,0.00,Wunderground v.1.15,2013-05-13 02:15:00,
2013-05-12 21:18:00,70.8,48.4,30.07,ENE,72,0.0,0.0,45,0.00,,,0.00,Wunderground v.1.15,2013-05-13 02:18:00,
2013-05-12 21:19:00,70.8,48.4,30.07,ENE,72,0.0,0.0,45,0.00,,,0.00,Wunderground v.1.15,2013-05-13 02:19:00,
2013-05-12 21:20:00,70.8,48.4,30.07,ENE,72,0.0,0.0,45,0.00,,,0.00,Wunderground v.1.15,2013-05-13 02:20:00,
2013-05-12 21:24:00,70.6,48.2,30.07,ENE,72,0.0,0.0,45,0.00,,,0.00,Wunderground v.1.15,2013-05-13 02:24:00,
2013-05-12 21:25:00,70.6,48.2,30.07,ENE,72,0.0,0.0,45,0.00,,,0.00,Wunderground v.1.15,2013-05-13 02:25:00,
2013-05-12 21:26:00,70.4,48.0,30.07,ENE,72,0.0,1.0,45,0.00,,,0.00,Wunderground v.1.15,2013-05-13 02:26:00,
2013-05-12 21:30:00,70.3,47.9,30.07,ENE,72,0.0,0.0,45,0.00,,,0.00,Wunderground v.1.15,2013-05-13 02:30:00,
2013-05-12 21:31:00,70.3,47.9,30.07,ENE,72,0.0,0.0,45,0.00,,,0.00,Wunderground v.1.15,2013-05-13 02:31:00,
2013-05-12 21:33:00,70.3,47.9,30.07,ENE,72,0.0,0.0,45,0.00,,,0.00,Wunderground v.1.15,2013-05-13 02:33:00,
2013-05-12 21:37:00,70.1,47.8,30.07,ENE,72,0.0,0.0,45,0.00,,,0.00,Wunderground v.1.15,2013-05-13 02:37:00,
2013-05-12 21:38:00,70.1,47.8,30.07,ENE,72,0.0,0.0,45,0.00,,,0.00,Wunderground v.1.15,2013-05-13 02:38:00,
2013-05-12 21:40:00,69.9,48.2,30.07,ENE,72,0.0,0.0,46,0.00,,,0.00,Wunderground v.1.15,2013-05-13 02:40:00,
2013-05-12 21:41:00,69.9,48.2,30.07,ENE,72,0.0,0.0,46,0.00,,,0.00,Wunderground v.1.15,2013-05-13 02:41:00,
2013-05-12 21:42:00,69.9,48.2,30.07,ENE,72,0.0,0.0,46,0.00,,,0.00,Wunderground v.1.15,2013-05-13 02:42:00,
2013-05-12 21:43:00,69.9,48.2,30.07,ENE,72,0.0,0.0,46,0.00,,,0.00,Wunderground v.1.15,2013-05-13 02:43:00,
2013-05-12 21:45:00,69.8,48.1,30.07,ENE,72,0.0,0.0,46,0.00,,,0.00,Wunderground v.1.15,2013-05-13 02:45:00,
2013-05-12 21:50:00,69.6,48.5,30.08,ENE,72,0.0,0.0,47,0.00,,,0.00,Wunderground v.1.15,2013-05-13 02:50:00,
2013-05-12 21:51:00,69.6,48.5,30.08,ENE,72,0.0,0.0,47,0.00,,,0.00,Wunderground v.1.15,2013-05-13 02:51:00,
2013-05-12 21:55:00,69.4,48.3,30.08,ENE,72,0.0,0.0,47,0.00,,,0.00,Wunderground v.1.15,2013-05-13 02:55:00,
2013-05-12 21:56:00,69.4,48.3,30.08,ENE,72,0.0,0.0,47,0.00,,,0.00,Wunderground v.1.15,2013-05-13 02:56:00,
2013-05-12 21:57:00,69.4,48.3,30.08,ENE,72,0.0,1.0,47,0.00,,,0.00,Wunderground v.1.15,2013-05-13 02:57:00,
2013-05-12 22:01:00,69.3,48.2,30.08,ENE,72,0.0,0.0,47,0.00,,,0.00,Wunderground v.1.15,2013-05-13 03:01:00,
2013-05-12 22:02:00,69.3,48.2,30.08,ENE,72,0.0,0.0,47,0.00,,,0.00,Wunderground v.1.15,2013-05-13 03:02:00,
2013-05-12 22:03:00,69.3,48.2,30.08,ENE,72,0.0,0.0,47,0.00,,,0.00,Wunderground v.1.15,2013-05-13 03:03:00,
2013-05-12 22:04:00,69.1,48.0,30.08,ENE,72,0.0,0.0,47,0.00,,,0.00,Wunderground v.1.15,2013-05-13 03:04:00,
2013-05-12 22:09:00,69.1,48.6,30.08,ENE,72,0.0,0.0,48,0.00,,,0.00,Wunderground v.1.15,2013-05-13 03:09:00,
2013-05-12 22:10:00,68.9,48.4,30.08,ENE,72,0.0,0.0,48,0.00,,,0.00,Wunderground v.1.15,2013-05-13 03:10:00,
2013-05-12 22:11:00,68.9,48.4,30.08,ENE,72,0.0,0.0,48,0.00,,,0.00,Wunderground v.1.15,2013-05-13 03:11:00,
2013-05-12 22:13:00,68.9,48.4,30.08,ENE,72,0.0,0.0,48,0.00,,,0.00,Wunderground v.1.15,2013-05-13 03:13:00,
2013-05-12 22:15:00,68.8,48.3,30.08,ENE,72,0.0,0.0,48,0.00,,,0.00,Wunderground v.1.15,2013-05-13 03:15:00,
2013-05-12 22:16:00,68.8,48.3,30.08,ENE,72,0.0,0.0,48,0.00,,,0.00,Wunderground v.1.15,2013-05-13 03:16:00,
2013-05-12 22:17:00,68.8,48.3,30.08,ENE,72,0.0,0.0,48,0.00,,,0.00,Wunderground v.1.15,2013-05-13 03:17:00,
2013-05-12 22:20:00,68.8,48.3,30.08,ENE,72,0.0,0.0,48,0.00,,,0.00,Wunderground v.1.15,2013-05-13 03:20:00,
2013-05-12 22:21:00,68.6,48.1,30.08,ENE,72,0.0,0.0,48,0.00,,,0.00,Wunderground v.1.15,2013-05-13 03:21:00,
2013-05-12 22:22:00,68.6,48.1,30.08,ENE,72,0.0,1.0,48,0.00,,,0.00,Wunderground v.1.15,2013-05-13 03:22:00,
2013-05-12 22:27:00,68.6,48.7,30.08,ENE,72,0.0,1.0,49,0.00,,,0.00,Wunderground v.1.15,2013-05-13 03:27:00,
2013-05-12 22:28:00,68.4,48.5,30.08,ENE,72,0.0,1.0,49,0.00,,,0.00,Wunderground v.1.15,2013-05-13 03:28:00,
2013-05-12 22:29:00,68.4,48.5,30.08,ENE,72,0.0,1.0,49,0.00,,,0.00,Wunderground v.1.15,2013-05-13 03:29:00,
2013-05-12 22:34:00,68.3,48.4,30.09,ENE,72,0.0,0.0,49,0.00,,,0.00,Wunderground v.1.15,2013-05-13 03:34:00,
2013-05-12 22:35:00,68.3,48.4,30.09,ENE,72,0.0,0.0,49,0.00,,,0.00,Wunderground v.1.15,2013-05-13 03:35:00,
2013-05-12 22:39:00,68.1,48.8,30.09,ENE,72,0.0,0.0,50,0.00,,,0.00,Wunderground v.1.15,2013-05-13 03:39:00,
2013-05-12 22:40:00,68.1,48.8,30.09,ENE,72,0.0,0.0,50,0.00,,,0.00,Wunderground v.1.15,2013-05-13 03:40:00,
2013-05-12 22:41:00,68.1,48.8,30.09,ENE,72,0.0,0.0,50,0.00,,,0.00,Wunderground v.1.15,2013-05-13 03:41:00,
2013-05-12 22:43:00,67.9,48.6,30.09,ENE,72,0.0,0.0,50,0.00,,,0.00,Wunderground v.1.15,2013-05-13 03:43:00,
2013-05-12 22:47:00,67.8,48.5,30.09,ENE,72,0.0,0.0,50,0.00,,,0.00,Wunderground v.1.15,2013-05-13 03:47:00,
2013-05-12 22:49:00,67.8,48.5,30.09,ENE,72,0.0,0.0,50,0.00,,,0.00,Wunderground v.1.15,2013-05-13 03:49:00,
2013-05-12 22:51:00,67.6,48.3,30.09,ENE,72,0.0,0.0,50,0.00,,,0.00,Wunderground v.1.15,2013-05-13 03:51:00,
2013-05-12 22:53:00,67.6,48.8,30.09,ENE,72,0.0,0.0,51,0.00,,,0.00,Wunderground v.1.15,2013-05-13 03:53:00,
2013-05-12 22:54:00,67.6,48.8,30.09,ENE,72,0.0,0.0,51,0.00,,,0.00,Wunderground v.1.15,2013-05-13 03:54:00,
2013-05-12 22:56:00,67.6,48.8,30.09,ENE,72,0.0,0.0,51,0.00,,,0.00,Wunderground v.1.15,2013-05-13 03:56:00,
2013-05-12 22:57:00,67.4,48.6,30.09,ENE,72,0.0,0.0,51,0.00,,,0.00,Wunderground v.1.15,2013-05-13 03:57:00,
2013-05-12 23:01:00,67.4,48.6,30.09,ENE,72,0.0,0.0,51,0.00,,,0.00,Wunderground v.1.15,2013-05-13 04:01:00,
2013-05-12 23:02:00,67.3,48.5,30.09,ENE,72,0.0,0.0,51,0.00,,,0.00,Wunderground v.1.15,2013-05-13 04:02:00,
2013-05-12 23:03:00,67.3,48.5,30.09,ENE,72,0.0,0.0,51,0.00,,,0.00,Wunderground v.1.15,2013-05-13 04:03:00,
2013-05-12 23:06:00,67.3,49.1,30.09,ENE,72,0.0,0.0,52,0.00,,,0.00,Wunderground v.1.15,2013-05-13 04:06:00,
2013-05-12 23:07:00,67.1,48.9,30.09,ENE,72,0.0,0.0,52,0.00,,,0.00,Wunderground v.1.15,2013-05-13 04:07:00,
2013-05-12 23:08:00,67.1,48.9,30.09,ENE,72,0.0,0.0,52,0.00,,,0.00,Wunderground v.1.15,2013-05-13 04:08:00,
2013-05-12 23:09:00,67.1,48.9,30.09,ENE,72,0.0,0.0,52,0.00,,,0.00,Wunderground v.1.15,2013-05-13 04:09:00,
2013-05-12 23:10:00,67.1,48.9,30.09,ENE,72,0.0,0.0,52,0.00,,,0.00,Wunderground v.1.15,2013-05-13 04:10:00,
2013-05-12 23:11:00,67.1,48.9,30.09,ENE,72,0.0,0.0,52,0.00,,,0.00,Wunderground v.1.15,2013-05-13 04:11:00,
2013-05-12 23:16:00,66.9,48.7,30.09,ENE,72,0.0,0.0,52,0.00,,,0.00,Wunderground v.1.15,2013-05-13 04:16:00,
2013-05-12 23:17:00,66.8,48.6,30.09,ENE,72,0.0,0.0,52,0.00,,,0.00,Wunderground v.1.15,2013-05-13 04:17:00,
2013-05-12 23:18:00,66.8,48.6,30.09,ENE,72,0.0,0.0,52,0.00,,,0.00,Wunderground v.1.15,2013-05-13 04:18:00,
2013-05-12 23:19:00,66.8,48.6,30.09,ENE,72,0.0,0.0,52,0.00,,,0.00,Wunderground v.1.15,2013-05-13 04:19:00,
2013-05-12 23:21:00,66.8,48.6,30.09,ENE,72,0.0,0.0,52,0.00,,,0.00,Wunderground v.1.15,2013-05-13 04:21:00,
2013-05-12 23:22:00,66.8,48.6,30.09,ENE,72,0.0,0.0,52,0.00,,,0.00,Wunderground v.1.15,2013-05-13 04:22:00,
2013-05-12 23:23:00,66.6,48.4,30.09,ENE,72,0.0,0.0,52,0.00,,,0.00,Wunderground v.1.15,2013-05-13 04:23:00,
2013-05-12 23:27:00,66.6,48.4,30.09,ENE,72,0.0,0.0,52,0.00,,,0.00,Wunderground v.1.15,2013-05-13 04:27:00,
2013-05-12 23:28:00,66.6,48.4,30.09,ENE,72,0.0,1.0,52,0.00,,,0.00,Wunderground v.1.15,2013-05-13 04:28:00,
2013-05-12 23:29:00,66.6,48.4,30.09,ENE,72,0.0,1.0,52,0.00,,,0.00,Wunderground v.1.15,2013-05-13 04:29:00,
2013-05-12 23:34:00,66.4,48.2,30.09,ENE,72,0.0,1.0,52,0.00,,,0.00,Wunderground v.1.15,2013-05-13 04:34:00,
2013-05-12 23:35:00,66.4,48.2,30.09,ENE,72,0.0,1.0,52,0.00,,,0.00,Wunderground v.1.15,2013-05-13 04:35:00,
2013-05-12 23:36:00,66.4,48.2,30.09,ENE,72,0.0,1.0,52,0.00,,,0.00,Wunderground v.1.15,2013-05-13 04:36:00,
2013-05-12 23:39:00,66.4,48.2,30.09,ENE,72,0.0,1.0,52,0.00,,,0.00,Wunderground v.1.15,2013-05-13 04:39:00,
2013-05-12 23:41:00,66.4,48.2,30.09,ENE,72,0.0,0.0,52,0.00,,,0.00,Wunderground v.1.15,2013-05-13 04:41:00,
2013-05-12 23:42:00,66.4,48.2,30.09,ENE,72,0.0,0.0,52,0.00,,,0.00,Wunderground v.1.15,2013-05-13 04:42:00,
2013-05-12 23:44:00,66.4,48.7,30.09,ENE,72,0.0,0.0,53,0.00,,,0.00,Wunderground v.1.15,2013-05-13 04:44:00,
2013-05-12 23:47:00,66.3,48.7,30.09,ENE,72,0.0,0.0,53,0.00,,,0.00,Wunderground v.1.15,2013-05-13 04:47:00,
2013-05-12 23:48:00,66.3,48.7,30.09,ENE,72,0.0,0.0,53,0.00,,,0.00,Wunderground v.1.15,2013-05-13 04:48:00,
2013-05-12 23:49:00,66.3,48.7,30.09,ENE,72,0.0,0.0,53,0.00,,,0.00,Wunderground v.1.15,2013-05-13 04:49:00,
2013-05-12 23:51:00,66.3,48.7,30.09,ENE,72,0.0,0.0,53,0.00,,,0.00,Wunderground v.1.15,2013-05-13 04:51:00,
2013-05-12 23:53:00,66.1,48.5,30.09,ENE,72,0.0,0.0,53,0.00,,,0.00,Wunderground v.1.15,2013-05-13 04:53:00,
2013-05-12 23:55:00,66.1,48.5,30.09,ENE,72,0.0,0.0,53,0.00,,,0.00,Wunderground v.1.15,2013-05-13 04:55:00,